| time (UTC) | temp F | wind direction | speed knots | gust knots | rain 1hr in | rain 24hr in | rain mn in | humidity % | barometer mb |
| 20260905171518 | 96 | 328 | 6.1 | 8.7 | 0.00 | 0.00 | 0.00 | 57 | 1013.3 |
| 20260905171425 | 96 | 308 | 6.1 | 8.7 | 0.00 | 0.00 | 0.00 | 59 | 1013.4 |
| 20260905171332 | 96 | 327 | 4.3 | 8.7 | 0.00 | 0.00 | 0.00 | 59 | 1013.4 |
| 20260905171223 | 96 | 339 | 3.5 | 6.1 | 0.00 | 0.00 | 0.00 | 57 | 1013.4 |
| 20260905171130 | 96 | 348 | 3.5 | 6.1 | 0.00 | 0.00 | 0.00 | 57 | 1013.4 |
| 20260905171057 | 96 | 355 | 3.5 | 6.1 | 0.00 | 0.00 | 0.00 | 58 | 1013.4 |
| 20260905170924 | 96 | 223 | 2.6 | 6.1 | 0.00 | 0.00 | 0.00 | 57 | 1013.4 |
| 20260905170832 | 96 | 225 | 2.6 | 6.1 | 0.00 | 0.00 | 0.00 | 56 | 1013.4 |
| 20260905170719 | 96 | 212 | 2.6 | 6.1 | 0.00 | 0.00 | 0.00 | 56 | 1013.4 |
| 20260905170630 | 96 | 114 | 2.6 | 6.1 | 0.00 | 0.00 | 0.00 | 56 | 1013.3 |
| 20260905170536 | 97 | 211 | 3.5 | 7.0 | 0.00 | 0.00 | 0.00 | 57 | 1013.5 |
| 20260905170424 | 97 | 228 | 3.5 | 7.0 | 0.00 | 0.00 | 0.00 | 58 | 1013.5 |
| 20260905170331 | 97 | 302 | 2.6 | 7.0 | 0.00 | 0.00 | 0.00 | 58 | 1013.4 |
| 20260905170301 | 97 | 252 | 2.6 | 7.0 | 0.00 | 0.00 | 0.00 | 58 | 1013.4 |
| 20260905170037 | 96 | 268 | 3.5 | 7.0 | 0.00 | 0.00 | 0.00 | 57 | 1013.5 |
| 20260905165945 | 97 | 309 | 2.6 | 7.0 | 0.00 | 0.00 | 0.00 | 58 | 1013.4 |
| 20260905165831 | 97 | 281 | 1.7 | 7.0 | 0.00 | 0.00 | 0.00 | 56 | 1013.5 |
| 20260905165738 | 97 | 203 | 1.7 | 7.0 | 0.00 | 0.00 | 0.00 | 58 | 1013.5 |
| 20260905165623 | 96 | 313 | 2.6 | 7.0 | 0.00 | 0.00 | 0.00 | 57 | 1013.5 |
| 20260905165530 | 96 | 360 | 2.6 | 7.0 | 0.00 | 0.00 | 0.00 | 58 | 1013.4 |
| 20260905165420 | 96 | 355 | 2.6 | 7.8 | 0.00 | 0.00 | 0.00 | 56 | 1013.4 |
| 20260905165327 | 96 | 342 | 3.5 | 7.8 | 0.00 | 0.00 | 0.00 | 58 | 1013.5 |
| 20260905165234 | 96 | 328 | 4.3 | 8.7 | 0.00 | 0.00 | 0.00 | 58 | 1013.5 |
| 20260905165119 | 96 | 338 | 4.3 | 8.7 | 0.00 | 0.00 | 0.00 | 59 | 1013.6 |
| 20260905165025 | 96 | 346 | 3.5 | 8.7 | 0.00 | 0.00 | 0.00 | 59 | 1013.7 |
| 20260905164931 | 96 | 342 | 3.5 | 8.7 | 0.00 | 0.00 | 0.00 | 59 | 1013.6 |
| 20260905164902 | 96 | 348 | 4.3 | 8.7 | 0.00 | 0.00 | 0.00 | 59 | 1013.6 |
| 20260905164811 | 96 | 319 | 5.2 | 8.7 | 0.00 | 0.00 | 0.00 | 59 | 1013.6 |
| 20260905164543 | 96 | 5 | 6.1 | 8.7 | 0.00 | 0.00 | 0.00 | 60 | 1013.6 |
| 20260905164429 | 96 | 348 | 5.2 | 8.7 | 0.00 | 0.00 | 0.00 | 61 | 1013.6 |
| 20260905164336 | 96 | 355 | 4.3 | 8.7 | 0.00 | 0.00 | 0.00 | 59 | 1013.7 |
| 20260905164228 | 96 | 306 | 5.2 | 7.8 | 0.00 | 0.00 | 0.00 | 58 | 1013.7 |
| 20260905164134 | 96 | 325 | 5.2 | 7.8 | 0.00 | 0.00 | 0.00 | 59 | 1013.7 |
| 20260905164022 | 96 | 335 | 4.3 | 7.8 | 0.00 | 0.00 | 0.00 | 58 | 1013.6 |
| 20260905163948 | 96 | 318 | 4.3 | 7.8 | 0.00 | 0.00 | 0.00 | 58 | 1013.8 |
| 20260905163834 | 96 | 273 | 4.3 | 7.8 | 0.00 | 0.00 | 0.00 | 60 | 1013.7 |
| 20260905163721 | 96 | 253 | 4.3 | 7.0 | 0.00 | 0.00 | 0.00 | 58 | 1013.8 |
| 20260905163631 | 96 | 268 | 2.6 | 7.0 | 0.00 | 0.00 | 0.00 | 58 | 1013.8 |
| 20260905163519 | 96 | 313 | 2.6 | 7.0 | 0.00 | 0.00 | 0.00 | 59 | 1013.7 |
| 20260905163445 | 96 | 341 | 2.6 | 7.0 | 0.00 | 0.00 | 0.00 | 58 | 1013.8 |
| 20260905163331 | 96 | 298 | 4.3 | 7.0 | 0.00 | 0.00 | 0.00 | 58 | 1013.8 |
| 20260905163300 | 96 | 282 | 4.3 | 7.0 | 0.00 | 0.00 | 0.00 | 59 | 1013.8 |
| 20260905163037 | 96 | 309 | 2.6 | 7.0 | 0.00 | 0.00 | 0.00 | 59 | 1013.8 |
| 20260905162925 | 96 | 315 | 1.7 | 7.0 | 0.00 | 0.00 | 0.00 | 60 | 1013.9 |
| 20260905162851 | 95 | 226 | 3.5 | 7.0 | 0.00 | 0.00 | 0.00 | 61 | 1014.0 |
| 20260905162737 | 95 | 5 | 4.3 | 7.0 | 0.00 | 0.00 | 0.00 | 61 | 1014.0 |
| 20260905162623 | 95 | 355 | 3.5 | 7.0 | 0.00 | 0.00 | 0.00 | 61 | 1014.0 |
| 20260905162529 | 95 | 5 | 2.6 | 7.0 | 0.00 | 0.00 | 0.00 | 60 | 1014.0 |
| 20260905162419 | 95 | 355 | 2.6 | 7.0 | 0.00 | 0.00 | 0.00 | 60 | 1014.1 |
| 20260905162346 | 95 | 294 | 3.5 | 7.0 | 0.00 | 0.00 | 0.00 | 60 | 1014.0 |
| 20260905162233 | 95 | 267 | 2.6 | 7.0 | 0.00 | 0.00 | 0.00 | 59 | 1014.0 |
| 20260905162120 | 95 | 284 | 3.5 | 7.0 | 0.00 | 0.00 | 0.00 | 60 | 1014.1 |
| 20260905162027 | 95 | 294 | 3.5 | 7.0 | 0.00 | 0.00 | 0.00 | 59 | 1014.0 |
| 20260905161933 | 95 | 288 | 3.5 | 7.0 | 0.00 | 0.00 | 0.00 | 60 | 1014.0 |
| 20260905161844 | 95 | 327 | 2.6 | 5.2 | 0.00 | 0.00 | 0.00 | 60 | 1014.0 |
| 20260905161815 | 95 | 344 | 1.7 | 5.2 | 0.00 | 0.00 | 0.00 | 59 | 1014.0 |
| 20260905161527 | 95 | 48 | 1.7 | 5.2 | 0.00 | 0.00 | 0.00 | 61 | 1014.1 |
| 20260905161434 | 95 | 53 | 2.6 | 5.2 | 0.00 | 0.00 | 0.00 | 59 | 1014.1 |
| 20260905161325 | 95 | 36 | 2.6 | 5.2 | 0.00 | 0.00 | 0.00 | 63 | 1014.1 |
| 20260905161231 | 94 | 20 | 2.6 | 7.0 | 0.00 | 0.00 | 0.00 | 62 | 1014.1 |
| 20260905161157 | 94 | 5 | 2.6 | 7.0 | 0.00 | 0.00 | 0.00 | 62 | 1014.1 |
| 20260905161023 | 94 | 24 | 2.6 | 7.0 | 0.00 | 0.00 | 0.00 | 62 | 1014.1 |
| 20260905160949 | 94 | 287 | 2.6 | 7.0 | 0.00 | 0.00 | 0.00 | 61 | 1014.1 |
| 20260905160835 | 94 | 318 | 2.6 | 7.0 | 0.00 | 0.00 | 0.00 | 60 | 1014.1 |
| 20260905160720 | 94 | 296 | 2.6 | 7.0 | 0.00 | 0.00 | 0.00 | 61 | 1014.2 |
| 20260905160629 | 94 | 318 | 2.6 | 7.0 | 0.00 | 0.00 | 0.00 | 61 | 1014.2 |
| 20260905160518 | 94 | 301 | 4.3 | 7.0 | 0.00 | 0.00 | 0.00 | 63 | 1014.2 |
| 20260905160423 | 94 | 320 | 3.5 | 7.0 | 0.00 | 0.00 | 0.00 | 64 | 1014.3 |
| 20260905160330 | 94 | 322 | 3.5 | 5.2 | 0.00 | 0.00 | 0.00 | 63 | 1014.3 |
| 20260905160300 | 94 | 327 | 3.5 | 5.2 | 0.00 | 0.00 | 0.00 | 64 | 1014.3 |
| 20260905160057 | 93 | 13 | 3.5 | 5.2 | 0.00 | 0.00 | 0.00 | 63 | 1014.4 |
| 20260905155922 | 93 | 321 | 0.9 | 4.3 | 0.00 | 0.00 | 0.00 | 64 | 1014.2 |
| 20260905155829 | 93 | 259 | 0.0 | 4.3 | 0.00 | 0.00 | 0.00 | 64 | 1014.3 |
| 20260905155736 | 93 | 311 | 0.0 | 4.3 | 0.00 | 0.00 | 0.00 | 63 | 1014.3 |
| 20260905155623 | 93 | 311 | 0.9 | 4.3 | 0.00 | 0.00 | 0.00 | 63 | 1014.3 |
| 20260905155530 | 93 | 23 | 0.9 | 4.3 | 0.00 | 0.00 | 0.00 | 62 | 1014.2 |
| 20260905155420 | 93 | 126 | 2.6 | 4.3 | 0.00 | 0.00 | 0.00 | 61 | 1014.3 |
| 20260905155326 | 93 | 126 | 2.6 | 4.3 | 0.00 | 0.00 | 0.00 | 62 | 1014.3 |
| 20260905155253 | 93 | 209 | 2.6 | 4.3 | 0.00 | 0.00 | 0.00 | 62 | 1014.3 |
| 20260905155120 | 93 | 225 | 1.7 | 5.2 | 0.00 | 0.00 | 0.00 | 61 | 1014.3 |
| 20260905155029 | 93 | 186 | 0.9 | 5.2 | 0.00 | 0.00 | 0.00 | 62 | 1014.3 |
| 20260905154919 | 93 | 253 | 0.9 | 5.2 | 0.00 | 0.00 | 0.00 | 62 | 1014.4 |
| 20260905154825 | 93 | 355 | 1.7 | 5.2 | 0.00 | 0.00 | 0.00 | 63 | 1014.3 |
| 20260905154755 | 93 | 355 | 2.6 | 5.2 | 0.00 | 0.00 | 0.00 | 63 | 1014.3 |
| 20260905154528 | 93 | 317 | 3.5 | 5.2 | 0.00 | 0.00 | 0.00 | 65 | 1014.3 |
| 20260905154433 | 93 | 336 | 3.5 | 5.2 | 0.00 | 0.00 | 0.00 | 63 | 1014.4 |
| 20260905154323 | 93 | 313 | 3.5 | 5.2 | 0.00 | 0.00 | 0.00 | 63 | 1014.3 |
| 20260905154230 | 93 | 355 | 2.6 | 3.5 | 0.00 | 0.00 | 0.00 | 63 | 1014.3 |
| 20260905154117 | 93 | 333 | 2.6 | 3.5 | 0.00 | 0.00 | 0.00 | 63 | 1014.4 |
| 20260905154043 | 93 | 322 | 1.7 | 3.5 | 0.00 | 0.00 | 0.00 | 63 | 1014.4 |
| 20260905153929 | 93 | 347 | 0.9 | 3.5 | 0.00 | 0.00 | 0.00 | 64 | 1014.4 |
| 20260905153837 | 93 | 190 | 0.9 | 3.5 | 0.00 | 0.00 | 0.00 | 64 | 1014.4 |
| 20260905153727 | 93 | 287 | 1.7 | 3.5 | 0.00 | 0.00 | 0.00 | 64 | 1014.4 |
| 20260905153633 | 93 | 346 | 0.9 | 3.5 | 0.00 | 0.00 | 0.00 | 65 | 1014.4 |
| 20260905153520 | 93 | 309 | 1.7 | 3.5 | 0.00 | 0.00 | 0.00 | 65 | 1014.4 |
| 20260905153428 | 93 | 295 | 1.7 | 4.3 | 0.00 | 0.00 | 0.00 | 66 | 1014.5 |
| 20260905153335 | 92 | 15 | 1.7 | 4.3 | 0.00 | 0.00 | 0.00 | 65 | 1014.5 |
| 20260905153309 | 92 | 360 | 1.7 | 4.3 | 0.00 | 0.00 | 0.00 | 65 | 1014.5 |
| 20260905153023 | 92 | 5 | 2.6 | 4.3 | 0.00 | 0.00 | 0.00 | 67 | 1014.5 |
| 20260905152930 | 92 | 13 | 2.6 | 4.3 | 0.00 | 0.00 | 0.00 | 65 | 1014.5 |
| 20260905152837 | 92 | 346 | 2.6 | 4.3 | 0.00 | 0.00 | 0.00 | 66 | 1014.4 |
| 20260905152723 | 92 | 360 | 2.6 | 4.3 | 0.00 | 0.00 | 0.00 | 66 | 1014.4 |
| 20260905152634 | 92 | 360 | 2.6 | 4.3 | 0.00 | 0.00 | 0.00 | 66 | 1014.4 |
| 20260905152520 | 92 | 321 | 1.7 | 4.3 | 0.00 | 0.00 | 0.00 | 65 | 1014.4 |
| 20260905152427 | 92 | 275 | 1.7 | 7.0 | 0.00 | 0.00 | 0.00 | 65 | 1014.3 |
| 20260905152332 | 92 | 32 | 2.6 | 7.0 | 0.00 | 0.00 | 0.00 | 67 | 1014.4 |
| 20260905152219 | 92 | 333 | 3.5 | 7.0 | 0.00 | 0.00 | 0.00 | 66 | 1014.4 |
| 20260905152127 | 92 | 360 | 2.6 | 7.0 | 0.00 | 0.00 | 0.00 | 67 | 1014.4 |
| 20260905152036 | 92 | 341 | 2.6 | 7.0 | 0.00 | 0.00 | 0.00 | 66 | 1014.4 |
| 20260905151922 | 92 | 280 | 2.6 | 7.0 | 0.00 | 0.00 | 0.00 | 66 | 1014.4 |
| 20260905151850 | 91 | 325 | 3.5 | 7.0 | 0.00 | 0.00 | 0.00 | 67 | 1014.3 |
| 20260905151800 | 91 | 355 | 3.5 | 7.0 | 0.00 | 0.00 | 0.00 | 67 | 1014.3 |
| 20260905151533 | 91 | 330 | 2.6 | 4.3 | 0.00 | 0.00 | 0.00 | 67 | 1014.4 |
| 20260905151423 | 91 | 5 | 2.6 | 4.3 | 0.00 | 0.00 | 0.00 | 66 | 1014.5 |
| 20260905151351 | 91 | 355 | 1.7 | 4.3 | 0.00 | 0.00 | 0.00 | 67 | 1014.5 |
| 20260905151237 | 91 | 298 | 2.6 | 4.3 | 0.00 | 0.00 | 0.00 | 67 | 1014.5 |
| 20260905151124 | 91 | 360 | 2.6 | 4.3 | 0.00 | 0.00 | 0.00 | 67 | 1014.4 |
| 20260905151031 | 91 | 344 | 1.7 | 3.5 | 0.00 | 0.00 | 0.00 | 68 | 1014.4 |
| 20260905150919 | 91 | 321 | 1.7 | 3.5 | 0.00 | 0.00 | 0.00 | 69 | 1014.4 |
| 20260905150830 | 91 | 313 | 1.7 | 2.6 | 0.00 | 0.00 | 0.00 | 68 | 1014.4 |
| 20260905150757 | 91 | 355 | 0.9 | 2.6 | 0.00 | 0.00 | 0.00 | 69 | 1014.4 |
| 20260905150622 | 91 | 338 | 0.9 | 2.6 | 0.00 | 0.00 | 0.00 | 69 | 1014.3 |
| 20260905150530 | 91 | 320 | 0.9 | 2.6 | 0.00 | 0.00 | 0.00 | 69 | 1014.3 |
| 20260905150457 | 91 | 296 | 1.7 | 2.6 | 0.00 | 0.00 | 0.00 | 69 | 1014.4 |
| 20260905150342 | 91 | 293 | 1.7 | 2.6 | 0.00 | 0.00 | 0.00 | 68 | 1014.4 |
| 20260905150317 | 91 | 307 | 0.9 | 2.6 | 0.00 | 0.00 | 0.00 | 69 | 1014.4 |
| 20260905150030 | 91 | 336 | 0.9 | 2.6 | 0.00 | 0.00 | 0.00 | 69 | 1014.3 |
| 20260905145936 | 91 | 296 | 0.9 | 2.6 | 0.00 | 0.00 | 0.00 | 69 | 1014.3 |
| 20260905145823 | 91 | 306 | 0.9 | 2.6 | 0.00 | 0.00 | 0.00 | 68 | 1014.4 |
| 20260905145731 | 91 | 281 | 0.9 | 2.6 | 0.00 | 0.00 | 0.00 | 68 | 1014.4 |
| 20260905145642 | 91 | 227 | 0.9 | 2.6 | 0.00 | 0.00 | 0.00 | 68 | 1014.3 |
| 20260905145528 | 91 | 271 | 0.9 | 2.6 | 0.00 | 0.00 | 0.00 | 67 | 1014.3 |
| 20260905145433 | 91 | 184 | 0.9 | 2.6 | 0.00 | 0.00 | 0.00 | 67 | 1014.3 |
| 20260905145322 | 91 | 217 | 0.9 | 2.6 | 0.00 | 0.00 | 0.00 | 67 | 1014.3 |
| 20260905145229 | 91 | 218 | 1.7 | 2.6 | 0.00 | 0.00 | 0.00 | 68 | 1014.4 |
| 20260905145136 | 91 | 253 | 1.7 | 2.6 | 0.00 | 0.00 | 0.00 | 68 | 1014.3 |
| 20260905145026 | 90 | 279 | 0.9 | 2.6 | 0.00 | 0.00 | 0.00 | 69 | 1014.4 |
| 20260905144934 | 90 | 244 | 0.9 | 2.6 | 0.00 | 0.00 | 0.00 | 67 | 1014.4 |
| 20260905144900 | 90 | 244 | 0.9 | 2.6 | 0.00 | 0.00 | 0.00 | 68 | 1014.3 |
| 20260905144810 | 90 | 267 | 0.9 | 2.6 | 0.00 | 0.00 | 0.00 | 68 | 1014.3 |
| 20260905144521 | 90 | 294 | 0.9 | 2.6 | 0.00 | 0.00 | 0.00 | 68 | 1014.3 |
| 20260905144433 | 90 | 294 | 0.9 | 2.6 | 0.00 | 0.00 | 0.00 | 69 | 1014.3 |
| 20260905144319 | 90 | 271 | 1.7 | 2.6 | 0.00 | 0.00 | 0.00 | 70 | 1014.4 |
| 20260905144226 | 89 | 271 | 1.7 | 2.6 | 0.00 | 0.00 | 0.00 | 69 | 1014.5 |
| 20260905144133 | 89 | 256 | 1.7 | 2.6 | 0.00 | 0.00 | 0.00 | 69 | 1014.4 |
| 20260905144021 | 89 | 273 | 0.9 | 2.6 | 0.00 | 0.00 | 0.00 | 69 | 1014.5 |
| 20260905143930 | 89 | 290 | 0.9 | 2.6 | 0.00 | 0.00 | 0.00 | 69 | 1014.5 |
| 20260905143837 | 89 | 290 | 0.9 | 2.6 | 0.00 | 0.00 | 0.00 | 69 | 1014.5 |
| 20260905143723 | 89 | 290 | 1.7 | 2.6 | 0.00 | 0.00 | 0.00 | 71 | 1014.6 |
| 20260905143631 | 89 | 277 | 1.7 | 2.6 | 0.00 | 0.00 | 0.00 | 72 | 1014.5 |
| 20260905143519 | 89 | 229 | 1.7 | 2.6 | 0.00 | 0.00 | 0.00 | 71 | 1014.5 |
| 20260905143426 | 89 | 215 | 1.7 | 2.6 | 0.00 | 0.00 | 0.00 | 73 | 1014.5 |
| 20260905143337 | 89 | 279 | 1.7 | 2.6 | 0.00 | 0.00 | 0.00 | 73 | 1014.6 |
| 20260905143308 | 89 | 288 | 0.9 | 2.6 | 0.00 | 0.00 | 0.00 | 72 | 1014.6 |
| 20260905143021 | 88 | 199 | 0.0 | 2.6 | 0.00 | 0.00 | 0.00 | 72 | 1014.6 |
| 20260905142927 | 88 | 198 | 0.0 | 2.6 | 0.00 | 0.00 | 0.00 | 72 | 1014.6 |
| 20260905142819 | 88 | 198 | 0.0 | 2.6 | 0.00 | 0.00 | 0.00 | 71 | 1014.6 |
| 20260905142726 | 88 | 240 | 0.0 | 2.6 | 0.00 | 0.00 | 0.00 | 72 | 1014.7 |
| 20260905142632 | 88 | 229 | 0.0 | 2.6 | 0.00 | 0.00 | 0.00 | 72 | 1014.6 |
| 20260905142519 | 88 | 229 | 0.9 | 2.6 | 0.00 | 0.00 | 0.00 | 72 | 1014.7 |
| 20260905142425 | 88 | 229 | 0.9 | 2.6 | 0.00 | 0.00 | 0.00 | 71 | 1014.6 |
| 20260905142331 | 88 | 201 | 0.0 | 2.6 | 0.00 | 0.00 | 0.00 | 72 | 1014.7 |
| 20260905142222 | 88 | 238 | 0.0 | 2.6 | 0.00 | 0.00 | 0.00 | 73 | 1014.7 |
| 20260905142129 | 88 | 270 | 0.0 | 2.6 | 0.00 | 0.00 | 0.00 | 73 | 1014.6 |
| 20260905142036 | 88 | 273 | 0.9 | 2.6 | 0.00 | 0.00 | 0.00 | 74 | 1014.7 |
| 20260905141923 | 88 | 273 | 0.9 | 2.6 | 0.00 | 0.00 | 0.00 | 74 | 1014.8 |
| 20260905141851 | 88 | 273 | 0.9 | 2.6 | 0.00 | 0.00 | 0.00 | 74 | 1014.8 |
| 20260905141825 | 88 | 304 | 0.9 | 2.6 | 0.00 | 0.00 | 0.00 | 75 | 1014.8 |
| 20260905141518 | 87 | 227 | 0.0 | 2.6 | 0.00 | 0.00 | 0.00 | 74 | 1014.8 |
| 20260905141445 | 87 | 225 | 0.9 | 2.6 | 0.00 | 0.00 | 0.00 | 75 | 1014.8 |
| 20260905141329 | 87 | 258 | 0.9 | 2.6 | 0.00 | 0.00 | 0.00 | 75 | 1014.8 |
| 20260905141236 | 87 | 273 | 0.9 | 2.6 | 0.00 | 0.00 | 0.00 | 76 | 1014.9 |
| 20260905141124 | 87 | 226 | 0.0 | 1.7 | 0.00 | 0.00 | 0.00 | 76 | 1014.9 |
| 20260905141056 | 87 | 192 | 0.0 | 1.7 | 0.00 | 0.00 | 0.00 | 75 | 1014.9 |
| 20260905140922 | 87 | 192 | 0.0 | 1.7 | 0.00 | 0.00 | 0.00 | 76 | 1014.8 |
| 20260905140829 | 87 | 247 | 0.0 | 1.7 | 0.00 | 0.00 | 0.00 | 76 | 1014.8 |
| 20260905140736 | 87 | 247 | 0.9 | 1.7 | 0.00 | 0.00 | 0.00 | 75 | 1014.9 |
| 20260905140624 | 86 | 217 | 0.0 | 1.7 | 0.00 | 0.00 | 0.00 | 75 | 1014.9 |
| 20260905140531 | 86 | 355 | 0.0 | 0.9 | 0.00 | 0.00 | 0.00 | 76 | 1014.9 |
| 20260905140421 | 86 | 355 | 0.0 | 0.9 | 0.00 | 0.00 | 0.00 | 76 | 1014.9 |
| 20260905140347 | 86 | 355 | 0.0 | 2.6 | 0.00 | 0.00 | 0.00 | 76 | 1014.8 |
| 20260905140316 | 86 | 275 | 0.0 | 2.6 | 0.00 | 0.00 | 0.00 | 76 | 1014.8 |
| 20260905140029 | 86 | 275 | 0.0 | 2.6 | 0.00 | 0.00 | 0.00 | 77 | 1014.8 |
| 20260905135920 | 86 | 275 | 0.0 | 3.5 | 0.00 | 0.00 | 0.00 | 77 | 1014.8 |
| 20260905135825 | 86 | 181 | 0.0 | 3.5 | 0.00 | 0.00 | 0.00 | 77 | 1014.9 |
| 20260905135732 | 85 | 181 | 0.0 | 3.5 | 0.00 | 0.00 | 0.00 | 77 | 1014.9 |
| 20260905135620 | 85 | 181 | 0.0 | 3.5 | 0.00 | 0.00 | 0.00 | 77 | 1014.9 |
| 20260905135529 | 85 | 182 | 0.9 | 3.5 | 0.00 | 0.00 | 0.00 | 77 | 1014.9 |
| 20260905135436 | 85 | 182 | 1.7 | 3.5 | 0.00 | 0.00 | 0.00 | 77 | 1014.9 |
| 20260905135327 | 85 | 172 | 0.9 | 3.5 | 0.00 | 0.00 | 0.00 | 79 | 1014.9 |
| 20260905135235 | 85 | 134 | 0.9 | 3.5 | 0.00 | 0.00 | 0.00 | 78 | 1014.9 |
| 20260905135139 | 85 | 201 | 1.7 | 3.5 | 0.00 | 0.00 | 0.00 | 77 | 1014.9 |
| 20260905135025 | 85 | 168 | 1.7 | 3.5 | 0.00 | 0.00 | 0.00 | 77 | 1015.0 |
| 20260905134933 | 85 | 179 | 1.7 | 3.5 | 0.00 | 0.00 | 0.00 | 78 | 1014.8 |
| 20260905134820 | 85 | 215 | 1.7 | 3.5 | 0.00 | 0.00 | 0.00 | 79 | 1014.9 |
| 20260905134754 | 85 | 150 | 1.7 | 3.5 | 0.00 | 0.00 | 0.00 | 80 | 1014.9 |
| 20260905134527 | 85 | 161 | 1.7 | 3.5 | 0.00 | 0.00 | 0.00 | 80 | 1014.9 |
| 20260905134455 | 84 | 137 | 0.0 | 2.6 | 0.00 | 0.00 | 0.00 | 80 | 1014.9 |
| 20260905134321 | 84 | 121 | 0.0 | 1.7 | 0.00 | 0.00 | 0.00 | 80 | 1014.8 |
| 20260905134229 | 84 | 121 | 0.0 | 1.7 | 0.00 | 0.00 | 0.00 | 80 | 1014.9 |
| 20260905134119 | 84 | 121 | 0.0 | 1.7 | 0.00 | 0.00 | 0.00 | 80 | 1014.8 |
| 20260905134026 | 84 | 121 | 0.0 | 1.7 | 0.00 | 0.00 | 0.00 | 80 | 1014.8 |
| 20260905133933 | 84 | 121 | 0.0 | 1.7 | 0.00 | 0.00 | 0.00 | 81 | 1014.9 |
| 20260905133820 | 83 | 156 | 0.0 | 0.9 | 0.00 | 0.00 | 0.00 | 81 | 1014.9 |
| 20260905133727 | 83 | 132 | 0.0 | 0.9 | 0.00 | 0.00 | 0.00 | 81 | 1014.9 |
| 20260905133636 | 83 | 132 | 0.0 | 0.0 | 0.00 | 0.00 | 0.00 | 81 | 1015.0 |
| 20260905133544 | 83 | 113 | 0.0 | 1.7 | 0.00 | 0.00 | 0.00 | 82 | 1015.0 |
| 20260905133432 | 83 | 113 | 0.0 | 2.6 | 0.00 | 0.00 | 0.00 | 82 | 1014.9 |
| 20260905133307 | 83 | 113 | 0.0 | 2.6 | 0.00 | 0.00 | 0.00 | 82 | 1014.9 |
| 20260905133025 | 82 | 109 | 0.0 | 2.6 | 0.00 | 0.00 | 0.00 | 82 | 1015.0 |
| 20260905132953 | 82 | 109 | 0.0 | 2.6 | 0.00 | 0.00 | 0.00 | 83 | 1015.0 |
| 20260905132858 | 82 | 109 | 0.0 | 2.6 | 0.00 | 0.00 | 0.00 | 83 | 1015.0 |
| 20260905132744 | 82 | 109 | 0.0 | 2.6 | 0.00 | 0.00 | 0.00 | 83 | 1014.9 |
| 20260905132630 | 82 | 109 | 0.0 | 2.6 | 0.00 | 0.00 | 0.00 | 83 | 1014.9 |
| 20260905132537 | 82 | 119 | 0.0 | 1.7 | 0.00 | 0.00 | 0.00 | 83 | 1014.9 |
| 20260905132423 | 81 | 155 | 0.0 | 1.7 | 0.00 | 0.00 | 0.00 | 84 | 1015.0 |
| 20260905132335 | 81 | 155 | 0.0 | 0.9 | 0.00 | 0.00 | 0.00 | 84 | 1015.0 |
| 20260905132221 | 81 | 117 | 0.0 | 0.9 | 0.00 | 0.00 | 0.00 | 85 | 1014.9 |
| 20260905132127 | 81 | 86 | 0.0 | 0.9 | 0.00 | 0.00 | 0.00 | 85 | 1015.0 |
| 20260905132035 | 81 | 86 | 0.0 | 0.9 | 0.00 | 0.00 | 0.00 | 85 | 1014.9 |
| 20260905131921 | 81 | 86 | 0.0 | 0.9 | 0.00 | 0.00 | 0.00 | 85 | 1014.9 |
| 20260905131832 | 81 | 86 | 0.0 | 0.9 | 0.00 | 0.00 | 0.00 | 85 | 1015.0 |
| 20260905131803 | 80 | 86 | 0.0 | 0.9 | 0.00 | 0.00 | 0.00 | 85 | 1015.0 |
| 20260905131537 | 80 | 86 | 0.0 | 0.9 | 0.00 | 0.00 | 0.00 | 86 | 1015.0 |
| 20260905131425 | 80 | 86 | 0.0 | 0.9 | 0.00 | 0.00 | 0.00 | 86 | 1015.0 |
| 20260905131332 | 80 | 112 | 0.0 | 0.9 | 0.00 | 0.00 | 0.00 | 86 | 1015.0 |
| 20260905131225 | 80 | 76 | 0.0 | 0.0 | 0.00 | 0.00 | 0.00 | 86 | 1015.0 |
| 20260905131133 | 80 | 76 | 0.0 | 0.9 | 0.00 | 0.00 | 0.00 | 86 | 1015.1 |
| 20260905131041 | 80 | 60 | 0.0 | 0.9 | 0.00 | 0.00 | 0.00 | 86 | 1015.0 |
| 20260905130928 | 80 | 60 | 0.0 | 0.9 | 0.00 | 0.00 | 0.00 | 86 | 1015.0 |
| 20260905130855 | 79 | 60 | 0.0 | 0.9 | 0.00 | 0.00 | 0.00 | 86 | 1015.0 |
| 20260905130721 | 79 | 60 | 0.0 | 0.9 | 0.00 | 0.00 | 0.00 | 86 | 1015.0 |
| 20260905130633 | 79 | 60 | 0.0 | 0.9 | 0.00 | 0.00 | 0.00 | 86 | 1014.9 |
| 20260905130520 | 79 | 60 | 0.0 | 0.9 | 0.00 | 0.00 | 0.00 | 87 | 1015.0 |
| 20260905130427 | 79 | 60 | 0.0 | 0.9 | 0.00 | 0.00 | 0.00 | 87 | 1015.0 |
| 20260905130335 | 79 | 60 | 0.0 | 1.7 | 0.00 | 0.00 | 0.00 | 87 | 1014.9 |
| 20260905130309 | 79 | 60 | 0.0 | 2.6 | 0.00 | 0.00 | 0.00 | 87 | 1014.9 |
| 20260905130041 | 79 | 60 | 0.0 | 2.6 | 0.00 | 0.00 | 0.00 | 87 | 1015.0 |
| 20260905125927 | 79 | 68 | 0.0 | 2.6 | 0.00 | 0.00 | 0.00 | 88 | 1015.0 |
| 20260905125852 | 79 | 68 | 0.0 | 2.6 | 0.00 | 0.00 | 0.00 | 88 | 1015.0 |
| 20260905125737 | 79 | 68 | 0.0 | 2.6 | 0.00 | 0.00 | 0.00 | 88 | 1014.9 |
| 20260905125625 | 78 | 130 | 0.9 | 2.6 | 0.00 | 0.00 | 0.00 | 88 | 1015.0 |
| 20260905125551 | 78 | 130 | 0.9 | 2.6 | 0.00 | 0.00 | 0.00 | 88 | 1015.0 |
| 20260905125422 | 78 | 146 | 0.9 | 2.6 | 0.00 | 0.00 | 0.00 | 88 | 1015.0 |
| 20260905125330 | 78 | 146 | 0.9 | 2.6 | 0.00 | 0.00 | 0.00 | 88 | 1015.0 |
| 20260905125237 | 78 | 113 | 0.9 | 1.7 | 0.00 | 0.00 | 0.00 | 88 | 1014.9 |
| 20260905125124 | 78 | 55 | 0.0 | 0.9 | 0.00 | 0.00 | 0.00 | 88 | 1015.0 |
| 20260905125029 | 78 | 23 | 0.0 | 0.0 | 0.00 | 0.00 | 0.00 | 88 | 1015.0 |
| 20260905124921 | 78 | 23 | 0.0 | 0.0 | 0.00 | 0.00 | 0.00 | 88 | 1014.9 |
| 20260905124827 | 78 | 23 | 0.0 | 0.0 | 0.00 | 0.00 | 0.00 | 88 | 1015.0 |
| 20260905124757 | 78 | 23 | 0.0 | 0.0 | 0.00 | 0.00 | 0.00 | 88 | 1015.0 |
| 20260905124529 | 78 | 23 | 0.0 | 0.0 | 0.00 | 0.00 | 0.00 | 88 | 1015.0 |
| 20260905124456 | 77 | 23 | 0.0 | 0.0 | 0.00 | 0.00 | 0.00 | 89 | 1014.9 |
| 20260905124326 | 77 | 23 | 0.0 | 0.0 | 0.00 | 0.00 | 0.00 | 89 | 1014.9 |
| 20260905124233 | 77 | 23 | 0.0 | 0.0 | 0.00 | 0.00 | 0.00 | 89 | 1014.9 |
| 20260905124120 | 77 | 23 | 0.0 | 0.0 | 0.00 | 0.00 | 0.00 | 89 | 1014.9 |
| 20260905124027 | 77 | 23 | 0.0 | 0.0 | 0.00 | 0.00 | 0.00 | 89 | 1014.9 |
| 20260905123934 | 77 | 23 | 0.0 | 0.0 | 0.00 | 0.00 | 0.00 | 89 | 1014.9 |
| 20260905123820 | 77 | 23 | 0.0 | 0.0 | 0.00 | 0.00 | 0.00 | 89 | 1015.0 |
| 20260905123731 | 77 | 23 | 0.0 | 0.9 | 0.00 | 0.00 | 0.00 | 89 | 1014.9 |
| 20260905123619 | 77 | 23 | 0.0 | 0.9 | 0.00 | 0.00 | 0.00 | 89 | 1015.0 |
| 20260905123527 | 77 | 23 | 0.0 | 0.9 | 0.00 | 0.00 | 0.00 | 89 | 1014.9 |
| 20260905123433 | 77 | 23 | 0.0 | 0.9 | 0.00 | 0.00 | 0.00 | 89 | 1015.0 |
| 20260905123322 | 77 | 23 | 0.0 | 0.9 | 0.00 | 0.00 | 0.00 | 89 | 1014.9 |
| 20260905123258 | 77 | 23 | 0.0 | 0.9 | 0.00 | 0.00 | 0.00 | 89 | 1014.9 |
| 20260905123031 | 77 | 23 | 0.0 | 0.9 | 0.00 | 0.00 | 0.00 | 90 | 1015.0 |
| 20260905122919 | 76 | 23 | 0.0 | 0.9 | 0.00 | 0.00 | 0.00 | 90 | 1015.0 |
| 20260905122827 | 76 | 23 | 0.0 | 1.7 | 0.00 | 0.00 | 0.00 | 90 | 1015.0 |
| 20260905122719 | 76 | 23 | 0.0 | 1.7 | 0.00 | 0.00 | 0.00 | 90 | 1015.0 |
| 20260905122648 | 76 | 23 | 0.0 | 1.7 | 0.00 | 0.00 | 0.00 | 90 | 1015.0 |
| 20260905122554 | 76 | 23 | 0.0 | 1.7 | 0.00 | 0.00 | 0.00 | 90 | 1015.0 |
| 20260905122419 | 76 | 23 | 0.0 | 1.7 | 0.00 | 0.00 | 0.00 | 90 | 1015.0 |
| 20260905122327 | 76 | 23 | 0.9 | 1.7 | 0.00 | 0.00 | 0.00 | 90 | 1015.0 |
| 20260905122234 | 76 | 23 | 0.9 | 1.7 | 0.00 | 0.00 | 0.00 | 91 | 1015.0 |
| 20260905122140 | 76 | 23 | 0.9 | 1.7 | 0.00 | 0.00 | 0.00 | 91 | 1014.9 |
| 20260905122031 | 76 | 23 | 0.9 | 1.7 | 0.00 | 0.00 | 0.00 | 91 | 1015.0 |
| 20260905121919 | 76 | 23 | 0.9 | 1.7 | 0.00 | 0.00 | 0.00 | 91 | 1014.9 |
| 20260905121846 | 76 | 23 | 0.9 | 1.7 | 0.00 | 0.00 | 0.00 | 91 | 1014.9 |
| 20260905121755 | 76 | 23 | 1.7 | 1.7 | 0.00 | 0.00 | 0.00 | 91 | 1014.9 |
| 20260905121529 | 75 | 23 | 0.9 | 1.7 | 0.00 | 0.00 | 0.00 | 91 | 1014.9 |
| 20260905121421 | 75 | 23 | 0.9 | 2.6 | 0.00 | 0.00 | 0.00 | 91 | 1014.8 |
| 20260905121348 | 75 | 23 | 0.0 | 2.6 | 0.00 | 0.00 | 0.00 | 91 | 1014.8 |
| 20260905121233 | 75 | 23 | 0.0 | 2.6 | 0.00 | 0.00 | 0.00 | 91 | 1014.9 |
| 20260905121121 | 75 | 23 | 0.0 | 2.6 | 0.00 | 0.00 | 0.00 | 91 | 1014.8 |
| 20260905121047 | 75 | 23 | 0.9 | 2.6 | 0.00 | 0.00 | 0.00 | 91 | 1014.8 |
| 20260905120933 | 75 | 23 | 0.0 | 2.6 | 0.00 | 0.00 | 0.00 | 91 | 1014.8 |
| 20260905120825 | 75 | 23 | 0.9 | 2.6 | 0.00 | 0.00 | 0.00 | 92 | 1014.8 |
| 20260905120734 | 75 | 23 | 0.9 | 2.6 | 0.00 | 0.00 | 0.00 | 91 | 1014.8 |
| 20260905120621 | 75 | 23 | 0.9 | 2.6 | 0.00 | 0.00 | 0.00 | 92 | 1014.7 |
| 20260905120526 | 75 | 23 | 0.9 | 2.6 | 0.00 | 0.00 | 0.00 | 92 | 1014.7 |
| 20260905120434 | 75 | 23 | 0.9 | 2.6 | 0.00 | 0.00 | 0.00 | 92 | 1014.7 |
| 20260905120400 | 75 | 23 | 0.9 | 2.6 | 0.00 | 0.00 | 0.00 | 92 | 1014.7 |
| 20260905120313 | 75 | 23 | 0.9 | 1.7 | 0.00 | 0.00 | 0.00 | 92 | 1014.7 |
| 20260905120025 | 75 | 23 | 0.0 | 1.7 | 0.00 | 0.00 | 0.00 | 92 | 1014.7 |
| 20260905115931 | 74 | 23 | 0.0 | 0.9 | 0.00 | 0.00 | 0.00 | 92 | 1014.6 |
| 20260905115858 | 74 | 23 | 0.0 | 1.7 | 0.00 | 0.00 | 0.00 | 92 | 1014.6 |
| 20260905115724 | 74 | 23 | 0.0 | 1.7 | 0.00 | 0.00 | 0.00 | 92 | 1014.7 |
| 20260905115631 | 74 | 23 | 0.0 | 1.7 | 0.00 | 0.00 | 0.00 | 92 | 1014.6 |
| 20260905115522 | 74 | 23 | 0.0 | 1.7 | 0.00 | 0.00 | 0.00 | 91 | 1014.6 |
| 20260905115428 | 74 | 23 | 0.0 | 2.6 | 0.00 | 0.00 | 0.00 | 91 | 1014.6 |
| 20260905115336 | 74 | 23 | 0.0 | 2.6 | 0.00 | 0.00 | 0.00 | 91 | 1014.6 |
| 20260905115222 | 74 | 23 | 0.0 | 2.6 | 0.00 | 0.00 | 0.00 | 91 | 1014.6 |
| 20260905115129 | 74 | 23 | 0.9 | 2.6 | 0.00 | 0.00 | 0.00 | 91 | 1014.5 |
| 20260905115020 | 74 | 23 | 0.9 | 2.6 | 0.00 | 0.00 | 0.00 | 91 | 1014.5 |
| 20260905114947 | 74 | 23 | 0.9 | 2.6 | 0.00 | 0.00 | 0.00 | 91 | 1014.5 |
| 20260905114853 | 74 | 23 | 0.9 | 3.5 | 0.00 | 0.00 | 0.00 | 92 | 1014.5 |
| 20260905114801 | 74 | 23 | 1.7 | 3.5 | 0.00 | 0.00 | 0.00 | 92 | 1014.5 |
| 20260905114534 | 74 | 23 | 1.7 | 3.5 | 0.00 | 0.00 | 0.00 | 92 | 1014.4 |
| 20260905114426 | 74 | 23 | 1.7 | 3.5 | 0.00 | 0.00 | 0.00 | 92 | 1014.4 |
| 20260905114333 | 74 | 23 | 1.7 | 3.5 | 0.00 | 0.00 | 0.00 | 91 | 1014.4 |
| 20260905114220 | 74 | 23 | 1.7 | 3.5 | 0.00 | 0.00 | 0.00 | 91 | 1014.4 |
| 20260905114126 | 74 | 23 | 1.7 | 3.5 | 0.00 | 0.00 | 0.00 | 91 | 1014.4 |
| 20260905114033 | 74 | 23 | 1.7 | 3.5 | 0.00 | 0.00 | 0.00 | 92 | 1014.3 |
| 20260905113920 | 74 | 23 | 1.7 | 2.6 | 0.00 | 0.00 | 0.00 | 92 | 1014.3 |
| 20260905113832 | 74 | 23 | 2.6 | 2.6 | 0.00 | 0.00 | 0.00 | 92 | 1014.3 |
| 20260905113720 | 74 | 23 | 1.7 | 2.6 | 0.00 | 0.00 | 0.00 | 91 | 1014.3 |
| 20260905113627 | 74 | 23 | 0.9 | 2.6 | 0.00 | 0.00 | 0.00 | 91 | 1014.3 |
| 20260905113535 | 74 | 23 | 0.0 | 0.0 | 0.00 | 0.00 | 0.00 | 91 | 1014.2 |
| 20260905113424 | 74 | 23 | 0.0 | 0.0 | 0.00 | 0.00 | 0.00 | 92 | 1014.2 |
| 20260905113305 | 74 | 23 | 0.0 | 0.0 | 0.00 | 0.00 | 0.00 | 92 | 1014.3 |
| 20260905113037 | 74 | 23 | 0.0 | 0.0 | 0.00 | 0.00 | 0.00 | 91 | 1014.2 |
| 20260905112923 | 74 | 23 | 0.0 | 0.0 | 0.00 | 0.00 | 0.00 | 92 | 1014.1 |
| 20260905112830 | 74 | 23 | 0.0 | 0.0 | 0.00 | 0.00 | 0.00 | 92 | 1014.3 |
| 20260905112720 | 74 | 23 | 0.0 | 0.0 | 0.00 | 0.00 | 0.00 | 92 | 1014.2 |
| 20260905112627 | 74 | 23 | 0.0 | 0.0 | 0.00 | 0.00 | 0.00 | 92 | 1014.2 |
| 20260905112554 | 74 | 23 | 0.0 | 0.0 | 0.00 | 0.00 | 0.00 | 92 | 1014.2 |
| 20260905112419 | 74 | 23 | 0.0 | 0.0 | 0.00 | 0.00 | 0.00 | 92 | 1014.2 |
| 20260905112325 | 74 | 23 | 0.0 | 0.0 | 0.00 | 0.00 | 0.00 | 91 | 1014.1 |
| 20260905112232 | 74 | 23 | 0.0 | 0.0 | 0.00 | 0.00 | 0.00 | 91 | 1014.2 |
| 20260905112123 | 74 | 23 | 0.0 | 0.0 | 0.00 | 0.00 | 0.00 | 91 | 1014.1 |
| 20260905112030 | 74 | 23 | 0.0 | 0.0 | 0.00 | 0.00 | 0.00 | 91 | 1014.1 |
| 20260905111958 | 74 | 23 | 0.0 | 0.0 | 0.00 | 0.00 | 0.00 | 91 | 1014.0 |
| 20260905111823 | 74 | 23 | 0.0 | 0.0 | 0.00 | 0.00 | 0.00 | 91 | 1014.0 |
| 20260905111757 | 74 | 23 | 0.0 | 0.0 | 0.00 | 0.00 | 0.00 | 91 | 1014.0 |
| 20260905111529 | 74 | 23 | 0.0 | 0.0 | 0.00 | 0.00 | 0.00 | 91 | 1013.9 |
| 20260905111457 | 74 | 23 | 0.0 | 0.0 | 0.00 | 0.00 | 0.00 | 91 | 1014.0 |
| 20260905111322 | 75 | 23 | 0.0 | 0.0 | 0.00 | 0.00 | 0.00 | 91 | 1013.9 |
| 20260905111228 | 75 | 23 | 0.0 | 0.0 | 0.00 | 0.00 | 0.00 | 91 | 1014.0 |
| 20260905111135 | 75 | 23 | 0.0 | 0.0 | 0.00 | 0.00 | 0.00 | 91 | 1013.9 |
| 20260905111023 | 75 | 23 | 0.0 | 0.0 | 0.00 | 0.00 | 0.00 | 91 | 1013.9 |
| 20260905110950 | 75 | 23 | 0.0 | 0.0 | 0.00 | 0.00 | 0.00 | 91 | 1013.8 |
| 20260905110820 | 75 | 23 | 0.0 | 0.0 | 0.00 | 0.00 | 0.00 | 91 | 1013.8 |
| 20260905110728 | 75 | 23 | 0.0 | 0.0 | 0.00 | 0.00 | 0.00 | 91 | 1013.8 |
| 20260905110634 | 75 | 23 | 0.0 | 0.0 | 0.00 | 0.00 | 0.00 | 91 | 1013.8 |
| 20260905110523 | 75 | 23 | 0.0 | 0.0 | 0.00 | 0.00 | 0.00 | 91 | 1013.9 |
| 20260905110431 | 75 | 23 | 0.0 | 0.0 | 0.00 | 0.00 | 0.00 | 91 | 1013.7 |
| 20260905110322 | 75 | 23 | 0.0 | 0.0 | 0.00 | 0.00 | 0.00 | 91 | 1013.7 |
| 20260905110252 | 75 | 23 | 0.0 | 0.0 | 0.00 | 0.00 | 0.00 | 91 | 1013.7 |
| 20260905110025 | 75 | 23 | 0.0 | 0.0 | 0.00 | 0.00 | 0.00 | 91 | 1013.7 |
| 20260905105932 | 75 | 23 | 0.0 | 0.0 | 0.00 | 0.00 | 0.00 | 91 | 1013.7 |
| 20260905105822 | 75 | 23 | 0.0 | 0.0 | 0.00 | 0.00 | 0.00 | 91 | 1013.7 |
| 20260905105730 | 75 | 23 | 0.0 | 0.0 | 0.00 | 0.00 | 0.00 | 91 | 1013.7 |
| 20260905105618 | 75 | 23 | 0.0 | 0.0 | 0.00 | 0.00 | 0.00 | 91 | 1013.6 |
| 20260905105525 | 75 | 23 | 0.0 | 0.0 | 0.00 | 0.00 | 0.00 | 91 | 1013.6 |
| 20260905105430 | 75 | 23 | 0.0 | 0.0 | 0.00 | 0.00 | 0.00 | 91 | 1013.6 |
| 20260905105319 | 75 | 23 | 0.0 | 0.0 | 0.00 | 0.00 | 0.00 | 91 | 1013.7 |
| 20260905105231 | 75 | 23 | 0.0 | 0.0 | 0.00 | 0.00 | 0.00 | 91 | 1013.6 |
| 20260905105119 | 75 | 23 | 0.0 | 0.0 | 0.00 | 0.00 | 0.00 | 91 | 1013.7 |
| 20260905105045 | 75 | 23 | 0.0 | 0.0 | 0.00 | 0.00 | 0.00 | 91 | 1013.7 |
| 20260905104932 | 75 | 23 | 0.0 | 0.0 | 0.00 | 0.00 | 0.00 | 91 | 1013.7 |
| 20260905104820 | 75 | 23 | 0.0 | 0.0 | 0.00 | 0.00 | 0.00 | 91 | 1013.7 |
| 20260905104755 | 75 | 23 | 0.0 | 0.0 | 0.00 | 0.00 | 0.00 | 91 | 1013.7 |
| 20260905104529 | 75 | 23 | 0.0 | 0.0 | 0.00 | 0.00 | 0.00 | 91 | 1013.7 |
| 20260905104435 | 75 | 23 | 0.0 | 0.0 | 0.00 | 0.00 | 0.00 | 91 | 1013.7 |
| 20260905104322 | 75 | 23 | 0.0 | 0.0 | 0.00 | 0.00 | 0.00 | 91 | 1013.6 |
| 20260905104229 | 75 | 23 | 0.0 | 0.0 | 0.00 | 0.00 | 0.00 | 91 | 1013.7 |
| 20260905104121 | 75 | 23 | 0.0 | 0.0 | 0.00 | 0.00 | 0.00 | 91 | 1013.6 |
| 20260905104029 | 75 | 23 | 0.0 | 0.0 | 0.00 | 0.00 | 0.00 | 91 | 1013.6 |
| 20260905103935 | 75 | 23 | 0.0 | 0.0 | 0.00 | 0.00 | 0.00 | 91 | 1013.6 |
| 20260905103841 | 75 | 23 | 0.0 | 0.0 | 0.00 | 0.00 | 0.00 | 91 | 1013.6 |
| 20260905103728 | 75 | 23 | 0.0 | 0.0 | 0.00 | 0.00 | 0.00 | 90 | 1013.6 |
| 20260905103634 | 75 | 23 | 0.0 | 0.0 | 0.00 | 0.00 | 0.00 | 90 | 1013.6 |
| 20260905103526 | 75 | 23 | 0.0 | 0.0 | 0.00 | 0.00 | 0.00 | 90 | 1013.6 |
| 20260905103432 | 75 | 23 | 0.0 | 0.0 | 0.00 | 0.00 | 0.00 | 90 | 1013.5 |
| 20260905103401 | 75 | 23 | 0.0 | 0.0 | 0.00 | 0.00 | 0.00 | 90 | 1013.5 |
| 20260905103310 | 75 | 23 | 0.0 | 0.0 | 0.00 | 0.00 | 0.00 | 91 | 1013.5 |
| 20260905103024 | 75 | 23 | 0.0 | 0.9 | 0.00 | 0.00 | 0.00 | 91 | 1013.5 |
| 20260905102936 | 75 | 23 | 0.0 | 1.7 | 0.00 | 0.00 | 0.00 | 90 | 1013.5 |
| 20260905102821 | 75 | 23 | 0.0 | 1.7 | 0.00 | 0.00 | 0.00 | 90 | 1013.4 |
| 20260905102728 | 75 | 23 | 0.0 | 1.7 | 0.00 | 0.00 | 0.00 | 90 | 1013.4 |
| 20260905102635 | 75 | 23 | 0.0 | 1.7 | 0.00 | 0.00 | 0.00 | 90 | 1013.3 |
| 20260905102523 | 75 | 23 | 0.0 | 1.7 | 0.00 | 0.00 | 0.00 | 90 | 1013.3 |
| 20260905102451 | 75 | 23 | 0.0 | 1.7 | 0.00 | 0.00 | 0.00 | 90 | 1013.3 |
| 20260905102321 | 75 | 23 | 0.0 | 1.7 | 0.00 | 0.00 | 0.00 | 90 | 1013.4 |
| 20260905102228 | 75 | 23 | 0.9 | 1.7 | 0.00 | 0.00 | 0.00 | 90 | 1013.2 |
| 20260905102135 | 75 | 23 | 0.9 | 1.7 | 0.00 | 0.00 | 0.00 | 90 | 1013.3 |
| 20260905102021 | 75 | 23 | 0.9 | 1.7 | 0.00 | 0.00 | 0.00 | 90 | 1013.3 |
| 20260905101948 | 75 | 23 | 0.9 | 1.7 | 0.00 | 0.00 | 0.00 | 90 | 1013.3 |
| 20260905101808 | 75 | 23 | 0.9 | 1.7 | 0.00 | 0.00 | 0.00 | 90 | 1013.3 |
| 20260905101521 | 75 | 23 | 0.9 | 1.7 | 0.00 | 0.00 | 0.00 | 91 | 1013.3 |
| 20260905101429 | 75 | 23 | 0.9 | 1.7 | 0.00 | 0.00 | 0.00 | 90 | 1013.3 |
| 20260905101317 | 75 | 23 | 0.9 | 1.7 | 0.00 | 0.00 | 0.00 | 90 | 1013.3 |
| 20260905101244 | 75 | 23 | 0.9 | 1.7 | 0.00 | 0.00 | 0.00 | 90 | 1013.3 |
| 20260905101133 | 75 | 23 | 0.9 | 1.7 | 0.00 | 0.00 | 0.00 | 91 | 1013.3 |
| 20260905101021 | 75 | 23 | 0.9 | 1.7 | 0.00 | 0.00 | 0.00 | 91 | 1013.3 |
| 20260905100926 | 75 | 23 | 0.9 | 1.7 | 0.00 | 0.00 | 0.00 | 91 | 1013.3 |
| 20260905100854 | 75 | 23 | 0.9 | 1.7 | 0.00 | 0.00 | 0.00 | 91 | 1013.2 |
| 20260905100739 | 75 | 23 | 0.9 | 1.7 | 0.00 | 0.00 | 0.00 | 91 | 1013.2 |
| 20260905100623 | 75 | 23 | 0.9 | 1.7 | 0.00 | 0.00 | 0.00 | 91 | 1013.3 |
| 20260905100531 | 75 | 23 | 0.9 | 1.7 | 0.00 | 0.00 | 0.00 | 91 | 1013.2 |
| 20260905100422 | 75 | 23 | 0.9 | 1.7 | 0.00 | 0.00 | 0.00 | 91 | 1013.3 |
| 20260905100329 | 75 | 23 | 0.9 | 1.7 | 0.00 | 0.00 | 0.00 | 91 | 1013.2 |
| 20260905100259 | 75 | 23 | 1.7 | 1.7 | 0.00 | 0.00 | 0.00 | 91 | 1013.2 |
| 20260905100034 | 75 | 23 | 1.7 | 1.7 | 0.00 | 0.00 | 0.00 | 91 | 1013.3 |
| 20260905095925 | 75 | 23 | 1.7 | 1.7 | 0.00 | 0.00 | 0.00 | 91 | 1013.3 |
| 20260905095832 | 75 | 23 | 0.9 | 1.7 | 0.00 | 0.00 | 0.00 | 91 | 1013.3 |
| 20260905095720 | 75 | 23 | 0.0 | 1.7 | 0.00 | 0.00 | 0.00 | 91 | 1013.3 |
| 20260905095628 | 75 | 23 | 0.0 | 0.0 | 0.00 | 0.00 | 0.00 | 92 | 1013.3 |
| 20260905095536 | 75 | 23 | 0.0 | 0.0 | 0.00 | 0.00 | 0.00 | 92 | 1013.3 |
| 20260905095422 | 75 | 23 | 0.0 | 0.0 | 0.00 | 0.00 | 0.00 | 92 | 1013.3 |
| 20260905095355 | 75 | 23 | 0.0 | 0.0 | 0.00 | 0.00 | 0.00 | 92 | 1013.3 |
| 20260905095221 | 75 | 23 | 0.0 | 0.0 | 0.00 | 0.00 | 0.00 | 91 | 1013.3 |
| 20260905095127 | 75 | 23 | 0.0 | 0.0 | 0.00 | 0.00 | 0.00 | 91 | 1013.2 |
| 20260905095034 | 75 | 23 | 0.0 | 0.0 | 0.00 | 0.00 | 0.00 | 92 | 1013.2 |
| 20260905094921 | 75 | 23 | 0.0 | 0.0 | 0.00 | 0.00 | 0.00 | 92 | 1013.3 |
| 20260905094850 | 75 | 23 | 0.0 | 0.9 | 0.00 | 0.00 | 0.00 | 92 | 1013.3 |
| 20260905094822 | 75 | 23 | 0.0 | 0.9 | 0.00 | 0.00 | 0.00 | 92 | 1013.3 |
| 20260905094533 | 75 | 23 | 0.0 | 0.9 | 0.00 | 0.00 | 0.00 | 92 | 1013.4 |
| 20260905094421 | 75 | 23 | 0.0 | 0.9 | 0.00 | 0.00 | 0.00 | 92 | 1013.4 |
| 20260905094329 | 75 | 23 | 0.0 | 0.9 | 0.00 | 0.00 | 0.00 | 91 | 1013.4 |
| 20260905094220 | 75 | 23 | 0.0 | 0.9 | 0.00 | 0.00 | 0.00 | 91 | 1013.3 |
| 20260905094127 | 75 | 23 | 0.0 | 0.9 | 0.00 | 0.00 | 0.00 | 91 | 1013.4 |
| 20260905094033 | 75 | 23 | 0.9 | 0.9 | 0.00 | 0.00 | 0.00 | 91 | 1013.3 |
| 20260905093921 | 75 | 23 | 0.0 | 0.9 | 0.00 | 0.00 | 0.00 | 91 | 1013.3 |
| 20260905093848 | 75 | 23 | 0.0 | 0.9 | 0.00 | 0.00 | 0.00 | 91 | 1013.2 |
| 20260905093733 | 75 | 23 | 0.0 | 0.9 | 0.00 | 0.00 | 0.00 | 91 | 1013.2 |
| 20260905093619 | 75 | 23 | 0.0 | 0.9 | 0.00 | 0.00 | 0.00 | 91 | 1013.2 |
| 20260905093528 | 75 | 23 | 0.0 | 0.9 | 0.00 | 0.00 | 0.00 | 91 | 1013.2 |
| 20260905093435 | 75 | 23 | 0.0 | 0.9 | 0.00 | 0.00 | 0.00 | 91 | 1013.2 |
| 20260905093323 | 75 | 23 | 0.0 | 0.9 | 0.00 | 0.00 | 0.00 | 91 | 1013.2 |
| 20260905093251 | 75 | 23 | 0.0 | 0.9 | 0.00 | 0.00 | 0.00 | 91 | 1013.2 |
| 20260905093029 | 75 | 23 | 0.0 | 1.7 | 0.00 | 0.00 | 0.00 | 91 | 1013.2 |
| 20260905092936 | 75 | 23 | 0.0 | 2.6 | 0.00 | 0.00 | 0.00 | 91 | 1013.2 |
| 20260905092843 | 75 | 23 | 0.0 | 2.6 | 0.00 | 0.00 | 0.00 | 90 | 1013.1 |
| 20260905092728 | 75 | 23 | 0.0 | 2.6 | 0.00 | 0.00 | 0.00 | 90 | 1013.2 |
| 20260905092635 | 75 | 23 | 0.0 | 2.6 | 0.00 | 0.00 | 0.00 | 91 | 1013.2 |
| 20260905092522 | 75 | 23 | 0.0 | 2.6 | 0.00 | 0.00 | 0.00 | 91 | 1013.3 |
| 20260905092433 | 75 | 23 | 0.0 | 2.6 | 0.00 | 0.00 | 0.00 | 91 | 1013.2 |
| 20260905092320 | 75 | 23 | 0.9 | 2.6 | 0.00 | 0.00 | 0.00 | 91 | 1013.2 |
| 20260905092226 | 75 | 23 | 1.7 | 2.6 | 0.00 | 0.00 | 0.00 | 91 | 1013.2 |
| 20260905092133 | 75 | 23 | 1.7 | 2.6 | 0.00 | 0.00 | 0.00 | 91 | 1013.2 |
| 20260905092040 | 75 | 23 | 1.7 | 2.6 | 0.00 | 0.00 | 0.00 | 91 | 1013.1 |
| 20260905091925 | 75 | 23 | 1.7 | 3.5 | 0.00 | 0.00 | 0.00 | 91 | 1013.1 |
| 20260905091837 | 75 | 23 | 1.7 | 3.5 | 0.00 | 0.00 | 0.00 | 91 | 1013.1 |
| 20260905091807 | 75 | 23 | 1.7 | 3.5 | 0.00 | 0.00 | 0.00 | 90 | 1013.1 |
| 20260905091520 | 75 | 23 | 1.7 | 3.5 | 0.00 | 0.00 | 0.00 | 90 | 1013.2 |
| 20260905091447 | 75 | 23 | 1.7 | 3.5 | 0.00 | 0.00 | 0.00 | 91 | 1013.1 |
| 20260905091333 | 75 | 23 | 1.7 | 3.5 | 0.00 | 0.00 | 0.00 | 91 | 1013.2 |
| 20260905091245 | 75 | 23 | 1.7 | 3.5 | 0.00 | 0.00 | 0.00 | 91 | 1013.2 |
| 20260905091131 | 75 | 5 | 2.6 | 3.5 | 0.00 | 0.00 | 0.00 | 90 | 1013.2 |
| 20260905091019 | 75 | 5 | 2.6 | 3.5 | 0.00 | 0.00 | 0.00 | 90 | 1013.2 |
| 20260905090945 | 75 | 5 | 2.6 | 3.5 | 0.00 | 0.00 | 0.00 | 90 | 1013.2 |
| 20260905090831 | 75 | 355 | 2.6 | 3.5 | 0.00 | 0.00 | 0.00 | 90 | 1013.1 |
| 20260905090718 | 75 | 360 | 2.6 | 3.5 | 0.00 | 0.00 | 0.00 | 90 | 1013.2 |
| 20260905090645 | 75 | 360 | 2.6 | 3.5 | 0.00 | 0.00 | 0.00 | 90 | 1013.1 |
| 20260905090535 | 75 | 360 | 2.6 | 3.5 | 0.00 | 0.00 | 0.00 | 90 | 1013.1 |
| 20260905090422 | 76 | 360 | 1.7 | 2.6 | 0.00 | 0.00 | 0.00 | 89 | 1013.1 |
| 20260905090329 | 76 | 360 | 0.9 | 2.6 | 0.00 | 0.00 | 0.00 | 89 | 1013.1 |
| 20260905090259 | 76 | 360 | 0.9 | 1.7 | 0.00 | 0.00 | 0.00 | 89 | 1013.1 |
| 20260905090037 | 76 | 360 | 0.9 | 0.9 | 0.00 | 0.00 | 0.00 | 89 | 1013.0 |
| 20260905085923 | 76 | 360 | 0.9 | 0.9 | 0.00 | 0.00 | 0.00 | 90 | 1013.1 |
| 20260905085830 | 76 | 360 | 0.9 | 0.9 | 0.00 | 0.00 | 0.00 | 90 | 1013.1 |
| 20260905085718 | 76 | 360 | 0.9 | 0.9 | 0.00 | 0.00 | 0.00 | 90 | 1013.1 |
| 20260905085646 | 76 | 360 | 0.9 | 0.9 | 0.00 | 0.00 | 0.00 | 90 | 1013.1 |
| 20260905085534 | 76 | 360 | 0.9 | 0.9 | 0.00 | 0.00 | 0.00 | 90 | 1013.1 |
| 20260905085444 | 76 | 360 | 0.0 | 0.9 | 0.00 | 0.00 | 0.00 | 90 | 1013.1 |
| 20260905085332 | 76 | 360 | 0.0 | 0.9 | 0.00 | 0.00 | 0.00 | 90 | 1013.1 |
| 20260905085219 | 76 | 360 | 0.0 | 0.0 | 0.00 | 0.00 | 0.00 | 90 | 1013.1 |
| 20260905085127 | 76 | 360 | 0.0 | 0.0 | 0.00 | 0.00 | 0.00 | 90 | 1013.1 |
| 20260905085033 | 76 | 360 | 0.0 | 0.0 | 0.00 | 0.00 | 0.00 | 90 | 1013.2 |
| 20260905084920 | 76 | 360 | 0.0 | 0.0 | 0.00 | 0.00 | 0.00 | 90 | 1013.2 |
| 20260905084831 | 76 | 360 | 0.0 | 0.0 | 0.00 | 0.00 | 0.00 | 90 | 1013.2 |
| 20260905084802 | 76 | 360 | 0.0 | 0.0 | 0.00 | 0.00 | 0.00 | 91 | 1013.2 |
| 20260905084535 | 76 | 360 | 0.0 | 0.0 | 0.00 | 0.00 | 0.00 | 91 | 1013.1 |
| 20260905084423 | 76 | 360 | 0.0 | 0.0 | 0.00 | 0.00 | 0.00 | 91 | 1013.1 |
| 20260905084333 | 76 | 360 | 0.0 | 0.0 | 0.00 | 0.00 | 0.00 | 90 | 1013.1 |
| 20260905084219 | 76 | 360 | 0.0 | 0.0 | 0.00 | 0.00 | 0.00 | 90 | 1013.1 |
| 20260905084126 | 76 | 360 | 0.0 | 0.0 | 0.00 | 0.00 | 0.00 | 90 | 1013.0 |
| 20260905084053 | 76 | 360 | 0.0 | 0.0 | 0.00 | 0.00 | 0.00 | 90 | 1013.1 |
| 20260905083918 | 76 | 360 | 0.0 | 0.0 | 0.00 | 0.00 | 0.00 | 90 | 1013.0 |
| 20260905083824 | 76 | 360 | 0.0 | 0.0 | 0.00 | 0.00 | 0.00 | 90 | 1013.0 |
| 20260905083736 | 76 | 360 | 0.0 | 0.0 | 0.00 | 0.00 | 0.00 | 89 | 1013.1 |
| 20260905083622 | 76 | 360 | 0.0 | 0.0 | 0.00 | 0.00 | 0.00 | 89 | 1013.1 |
| 20260905083530 | 76 | 360 | 0.0 | 0.0 | 0.00 | 0.00 | 0.00 | 89 | 1013.0 |
| 20260905083437 | 76 | 360 | 0.0 | 0.0 | 0.00 | 0.00 | 0.00 | 89 | 1013.1 |
| 20260905083323 | 76 | 360 | 0.0 | 0.0 | 0.00 | 0.00 | 0.00 | 89 | 1013.0 |
| 20260905083259 | 76 | 360 | 0.0 | 0.0 | 0.00 | 0.00 | 0.00 | 89 | 1013.0 |
| 20260905083052 | 76 | 360 | 0.0 | 0.0 | 0.00 | 0.00 | 0.00 | 89 | 1013.2 |
| 20260905082917 | 76 | 360 | 0.0 | 0.0 | 0.00 | 0.00 | 0.00 | 89 | 1013.1 |
| 20260905082825 | 76 | 360 | 0.0 | 0.0 | 0.00 | 0.00 | 0.00 | 89 | 1013.2 |
| 20260905082734 | 76 | 360 | 0.0 | 0.0 | 0.00 | 0.00 | 0.00 | 89 | 1013.1 |
| 20260905082626 | 76 | 360 | 0.0 | 0.0 | 0.00 | 0.00 | 0.00 | 89 | 1013.2 |
| 20260905082533 | 76 | 360 | 0.0 | 0.0 | 0.00 | 0.00 | 0.00 | 90 | 1013.1 |
| 20260905082420 | 76 | 360 | 0.0 | 0.0 | 0.00 | 0.00 | 0.00 | 90 | 1013.1 |
| 20260905082347 | 76 | 360 | 0.0 | 0.0 | 0.00 | 0.00 | 0.00 | 90 | 1013.1 |
| 20260905082233 | 76 | 360 | 0.0 | 0.0 | 0.00 | 0.00 | 0.00 | 90 | 1013.1 |
| 20260905082139 | 76 | 360 | 0.0 | 0.0 | 0.00 | 0.00 | 0.00 | 90 | 1013.1 |
| 20260905082026 | 76 | 360 | 0.0 | 0.0 | 0.00 | 0.00 | 0.00 | 90 | 1013.1 |
| 20260905081958 | 76 | 360 | 0.0 | 0.0 | 0.00 | 0.00 | 0.00 | 90 | 1013.1 |
| 20260905081844 | 76 | 360 | 0.0 | 0.9 | 0.00 | 0.00 | 0.00 | 90 | 1013.0 |
| 20260905081754 | 76 | 360 | 0.0 | 1.7 | 0.00 | 0.00 | 0.00 | 90 | 1013.0 |
| 20260905081528 | 76 | 360 | 0.0 | 1.7 | 0.00 | 0.00 | 0.00 | 90 | 1013.1 |
| 20260905081434 | 76 | 360 | 0.0 | 1.7 | 0.00 | 0.00 | 0.00 | 89 | 1012.9 |
| 20260905081326 | 76 | 360 | 0.0 | 1.7 | 0.00 | 0.00 | 0.00 | 89 | 1013.0 |
| 20260905081233 | 76 | 360 | 0.0 | 2.6 | 0.00 | 0.00 | 0.00 | 89 | 1013.1 |
| 20260905081119 | 76 | 360 | 0.0 | 2.6 | 0.00 | 0.00 | 0.00 | 89 | 1013.0 |
| 20260905081027 | 76 | 360 | 0.9 | 2.6 | 0.00 | 0.00 | 0.00 | 89 | 1013.0 |
| 20260905080933 | 76 | 360 | 1.7 | 2.6 | 0.00 | 0.00 | 0.00 | 88 | 1013.0 |
| 20260905080825 | 76 | 360 | 0.9 | 2.6 | 0.00 | 0.00 | 0.00 | 88 | 1013.0 |
| 20260905080733 | 76 | 360 | 1.7 | 2.6 | 0.00 | 0.00 | 0.00 | 88 | 1013.0 |
| 20260905080620 | 76 | 360 | 1.7 | 2.6 | 0.00 | 0.00 | 0.00 | 88 | 1013.0 |
| 20260905080526 | 76 | 360 | 1.7 | 2.6 | 0.00 | 0.00 | 0.00 | 88 | 1013.0 |
| 20260905080434 | 76 | 360 | 1.7 | 2.6 | 0.00 | 0.00 | 0.00 | 88 | 1013.0 |
| 20260905080341 | 76 | 360 | 1.7 | 2.6 | 0.00 | 0.00 | 0.00 | 88 | 1013.1 |
| 20260905080254 | 76 | 360 | 1.7 | 2.6 | 0.00 | 0.00 | 0.00 | 88 | 1013.1 |
| 20260905080026 | 76 | 360 | 1.7 | 2.6 | 0.00 | 0.00 | 0.00 | 88 | 1012.9 |
| 20260905075952 | 76 | 360 | 1.7 | 2.6 | 0.00 | 0.00 | 0.00 | 88 | 1012.9 |
| 20260905075817 | 76 | 360 | 1.7 | 2.6 | 0.00 | 0.00 | 0.00 | 88 | 1012.9 |
| 20260905075725 | 76 | 360 | 0.9 | 1.7 | 0.00 | 0.00 | 0.00 | 89 | 1012.9 |
| 20260905075636 | 76 | 360 | 1.7 | 1.7 | 0.00 | 0.00 | 0.00 | 88 | 1013.0 |
| 20260905075523 | 76 | 360 | 1.7 | 1.7 | 0.00 | 0.00 | 0.00 | 88 | 1012.9 |
| 20260905075430 | 76 | 360 | 0.9 | 1.7 | 0.00 | 0.00 | 0.00 | 88 | 1012.8 |
| 20260905075357 | 76 | 360 | 0.9 | 1.7 | 0.00 | 0.00 | 0.00 | 88 | 1012.8 |
| 20260905075242 | 76 | 360 | 0.9 | 1.7 | 0.00 | 0.00 | 0.00 | 88 | 1012.8 |
| 20260905075149 | 76 | 360 | 0.9 | 1.7 | 0.00 | 0.00 | 0.00 | 88 | 1012.8 |
| 20260905075034 | 76 | 360 | 0.9 | 0.9 | 0.00 | 0.00 | 0.00 | 88 | 1012.8 |
| 20260905074924 | 76 | 360 | 0.0 | 0.9 | 0.00 | 0.00 | 0.00 | 88 | 1012.8 |
| 20260905074852 | 76 | 360 | 0.0 | 0.0 | 0.00 | 0.00 | 0.00 | 88 | 1012.8 |
| 20260905074822 | 76 | 360 | 0.0 | 0.0 | 0.00 | 0.00 | 0.00 | 89 | 1012.8 |
| 20260905074555 | 76 | 360 | 0.0 | 0.0 | 0.00 | 0.00 | 0.00 | 89 | 1012.8 |
| 20260905074420 | 76 | 360 | 0.0 | 0.0 | 0.00 | 0.00 | 0.00 | 89 | 1012.8 |
| 20260905074326 | 76 | 360 | 0.0 | 0.0 | 0.00 | 0.00 | 0.00 | 89 | 1012.8 |
| 20260905074236 | 76 | 360 | 0.0 | 0.0 | 0.00 | 0.00 | 0.00 | 89 | 1012.8 |
| 20260905074123 | 76 | 360 | 0.0 | 0.0 | 0.00 | 0.00 | 0.00 | 89 | 1012.8 |
| 20260905074031 | 76 | 360 | 0.0 | 0.0 | 0.00 | 0.00 | 0.00 | 88 | 1012.8 |
| 20260905073917 | 76 | 360 | 0.0 | 0.9 | 0.00 | 0.00 | 0.00 | 88 | 1012.8 |
| 20260905073823 | 76 | 360 | 0.0 | 0.9 | 0.00 | 0.00 | 0.00 | 88 | 1012.7 |
| 20260905073751 | 76 | 360 | 0.0 | 0.9 | 0.00 | 0.00 | 0.00 | 88 | 1012.8 |
| 20260905073622 | 76 | 360 | 0.0 | 0.9 | 0.00 | 0.00 | 0.00 | 88 | 1012.8 |
| 20260905073530 | 76 | 360 | 0.0 | 0.9 | 0.00 | 0.00 | 0.00 | 88 | 1012.9 |
| 20260905073436 | 76 | 360 | 0.0 | 0.9 | 0.00 | 0.00 | 0.00 | 88 | 1012.8 |
| 20260905073342 | 76 | 360 | 0.0 | 0.9 | 0.00 | 0.00 | 0.00 | 87 | 1012.9 |
| 20260905073318 | 76 | 360 | 0.0 | 1.7 | 0.00 | 0.00 | 0.00 | 87 | 1012.9 |
| 20260905073029 | 76 | 360 | 0.0 | 1.7 | 0.00 | 0.00 | 0.00 | 87 | 1012.8 |
| 20260905072936 | 77 | 360 | 0.9 | 1.7 | 0.00 | 0.00 | 0.00 | 88 | 1012.9 |
| 20260905072823 | 77 | 360 | 0.9 | 1.7 | 0.00 | 0.00 | 0.00 | 88 | 1012.9 |
| 20260905072750 | 77 | 360 | 0.9 | 1.7 | 0.00 | 0.00 | 0.00 | 88 | 1012.9 |
| 20260905072637 | 77 | 360 | 0.9 | 1.7 | 0.00 | 0.00 | 0.00 | 88 | 1012.9 |
| 20260905072527 | 77 | 360 | 0.9 | 1.7 | 0.00 | 0.00 | 0.00 | 88 | 1012.8 |
| 20260905072433 | 77 | 360 | 0.9 | 1.7 | 0.00 | 0.00 | 0.00 | 88 | 1012.9 |
| 20260905072320 | 77 | 360 | 0.9 | 1.7 | 0.00 | 0.00 | 0.00 | 88 | 1012.9 |
| 20260905072229 | 77 | 360 | 0.9 | 1.7 | 0.00 | 0.00 | 0.00 | 88 | 1012.8 |
| 20260905072137 | 77 | 360 | 0.9 | 1.7 | 0.00 | 0.00 | 0.00 | 88 | 1012.9 |
| 20260905072023 | 77 | 360 | 0.9 | 1.7 | 0.00 | 0.00 | 0.00 | 88 | 1012.9 |
| 20260905071933 | 77 | 360 | 0.9 | 1.7 | 0.00 | 0.00 | 0.00 | 88 | 1012.9 |
| 20260905071811 | 77 | 360 | 0.9 | 1.7 | 0.00 | 0.00 | 0.00 | 88 | 1012.9 |
| 20260905071524 | 77 | 360 | 0.9 | 1.7 | 0.00 | 0.00 | 0.00 | 88 | 1012.8 |
| 20260905071435 | 77 | 360 | 0.9 | 1.7 | 0.00 | 0.00 | 0.00 | 88 | 1012.9 |
| 20260905071343 | 77 | 360 | 0.9 | 1.7 | 0.00 | 0.00 | 0.00 | 88 | 1012.9 |
| 20260905071250 | 77 | 360 | 0.9 | 1.7 | 0.00 | 0.00 | 0.00 | 87 | 1012.9 |
| 20260905071136 | 77 | 360 | 0.9 | 1.7 | 0.00 | 0.00 | 0.00 | 87 | 1012.9 |
| 20260905071023 | 77 | 360 | 0.9 | 1.7 | 0.00 | 0.00 | 0.00 | 87 | 1012.9 |
| 20260905070949 | 77 | 360 | 0.9 | 1.7 | 0.00 | 0.00 | 0.00 | 87 | 1013.0 |
| 20260905070835 | 77 | 360 | 0.9 | 1.7 | 0.00 | 0.00 | 0.00 | 87 | 1013.1 |
| 20260905070725 | 77 | 360 | 0.9 | 2.6 | 0.00 | 0.00 | 0.00 | 87 | 1013.0 |
| 20260905070631 | 77 | 360 | 0.9 | 2.6 | 0.00 | 0.00 | 0.00 | 87 | 1013.1 |
| 20260905070536 | 77 | 360 | 0.9 | 2.6 | 0.00 | 0.00 | 0.00 | 87 | 1013.1 |
| 20260905070443 | 77 | 360 | 0.9 | 2.6 | 0.00 | 0.00 | 0.00 | 87 | 1013.2 |
| 20260905070349 | 77 | 360 | 0.9 | 2.6 | 0.00 | 0.00 | 0.00 | 87 | 1013.2 |
| 20260905070259 | 77 | 360 | 0.9 | 2.6 | 0.00 | 0.00 | 0.00 | 86 | 1013.2 |
| 20260905070036 | 77 | 360 | 1.7 | 2.6 | 0.00 | 0.00 | 0.00 | 86 | 1013.3 |
| 20260905065923 | 77 | 360 | 1.7 | 2.6 | 0.00 | 0.00 | 0.00 | 86 | 1013.3 |
| 20260905065850 | 77 | 360 | 1.7 | 2.6 | 0.00 | 0.00 | 0.00 | 86 | 1013.3 |
| 20260905065736 | 77 | 360 | 1.7 | 2.6 | 0.00 | 0.00 | 0.00 | 86 | 1013.2 |
| 20260905065622 | 77 | 360 | 1.7 | 2.6 | 0.00 | 0.00 | 0.00 | 86 | 1013.2 |
| 20260905065529 | 77 | 360 | 0.9 | 1.7 | 0.00 | 0.00 | 0.00 | 86 | 1013.2 |
| 20260905065419 | 77 | 360 | 0.9 | 1.7 | 0.00 | 0.00 | 0.00 | 86 | 1013.2 |
| 20260905065346 | 77 | 360 | 0.0 | 1.7 | 0.00 | 0.00 | 0.00 | 85 | 1013.2 |
| 20260905065231 | 77 | 360 | 0.0 | 1.7 | 0.00 | 0.00 | 0.00 | 85 | 1013.2 |
| 20260905065137 | 77 | 360 | 0.0 | 1.7 | 0.00 | 0.00 | 0.00 | 85 | 1013.3 |
| 20260905065025 | 77 | 360 | 0.0 | 1.7 | 0.00 | 0.00 | 0.00 | 85 | 1013.3 |
| 20260905064932 | 77 | 360 | 0.9 | 1.7 | 0.00 | 0.00 | 0.00 | 85 | 1013.4 |
| 20260905064823 | 77 | 360 | 0.9 | 2.6 | 0.00 | 0.00 | 0.00 | 85 | 1013.4 |
| 20260905064754 | 77 | 360 | 0.9 | 2.6 | 0.00 | 0.00 | 0.00 | 85 | 1013.4 |
| 20260905064525 | 77 | 360 | 0.9 | 2.6 | 0.00 | 0.00 | 0.00 | 85 | 1013.5 |
| 20260905064434 | 77 | 360 | 0.9 | 2.6 | 0.00 | 0.00 | 0.00 | 85 | 1013.5 |
| 20260905064325 | 77 | 360 | 0.9 | 2.6 | 0.00 | 0.00 | 0.00 | 84 | 1013.4 |
| 20260905064232 | 77 | 360 | 0.9 | 2.6 | 0.00 | 0.00 | 0.00 | 84 | 1013.5 |
| 20260905064119 | 77 | 360 | 1.7 | 2.6 | 0.00 | 0.00 | 0.00 | 84 | 1013.4 |
| 20260905064025 | 77 | 360 | 1.7 | 2.6 | 0.00 | 0.00 | 0.00 | 84 | 1013.4 |
| 20260905063932 | 77 | 360 | 0.9 | 2.6 | 0.00 | 0.00 | 0.00 | 84 | 1013.4 |
| 20260905063823 | 77 | 360 | 0.9 | 2.6 | 0.00 | 0.00 | 0.00 | 85 | 1013.5 |
| 20260905063751 | 77 | 360 | 0.9 | 2.6 | 0.00 | 0.00 | 0.00 | 85 | 1013.4 |
| 20260905063634 | 77 | 360 | 0.9 | 2.6 | 0.00 | 0.00 | 0.00 | 85 | 1013.5 |
| 20260905063523 | 78 | 355 | 0.9 | 2.6 | 0.00 | 0.00 | 0.00 | 85 | 1013.4 |
| 20260905063450 | 77 | 355 | 1.7 | 2.6 | 0.00 | 0.00 | 0.00 | 85 | 1013.5 |
| 20260905063335 | 77 | 355 | 1.7 | 2.6 | 0.00 | 0.00 | 0.00 | 85 | 1013.5 |
| 20260905063310 | 78 | 355 | 1.7 | 2.6 | 0.00 | 0.00 | 0.00 | 85 | 1013.5 |
| 20260905063043 | 78 | 42 | 1.7 | 2.6 | 0.00 | 0.00 | 0.00 | 85 | 1013.5 |
| 20260905062929 | 78 | 42 | 1.7 | 2.6 | 0.00 | 0.00 | 0.00 | 86 | 1013.5 |
| 20260905062837 | 78 | 42 | 1.7 | 1.7 | 0.00 | 0.00 | 0.00 | 86 | 1013.5 |
| 20260905062723 | 78 | 42 | 0.9 | 1.7 | 0.00 | 0.00 | 0.00 | 86 | 1013.6 |
| 20260905062630 | 78 | 42 | 0.9 | 1.7 | 0.00 | 0.00 | 0.00 | 86 | 1013.5 |
| 20260905062521 | 78 | 42 | 0.9 | 2.6 | 0.00 | 0.00 | 0.00 | 86 | 1013.5 |
| 20260905062428 | 78 | 42 | 0.9 | 2.6 | 0.00 | 0.00 | 0.00 | 86 | 1013.6 |
| 20260905062335 | 78 | 42 | 0.9 | 2.6 | 0.00 | 0.00 | 0.00 | 86 | 1013.5 |
| 20260905062222 | 78 | 42 | 0.9 | 2.6 | 0.00 | 0.00 | 0.00 | 86 | 1013.5 |
| 20260905062130 | 78 | 42 | 0.9 | 2.6 | 0.00 | 0.00 | 0.00 | 86 | 1013.5 |
| 20260905062021 | 78 | 42 | 0.9 | 2.6 | 0.00 | 0.00 | 0.00 | 86 | 1013.5 |
| 20260905061929 | 78 | 42 | 0.9 | 2.6 | 0.00 | 0.00 | 0.00 | 86 | 1013.6 |
| 20260905061857 | 78 | 42 | 1.7 | 2.6 | 0.00 | 0.00 | 0.00 | 86 | 1013.5 |
| 20260905061807 | 78 | 42 | 1.7 | 2.6 | 0.00 | 0.00 | 0.00 | 85 | 1013.5 |
| 20260905061519 | 78 | 48 | 0.9 | 2.6 | 0.00 | 0.00 | 0.00 | 85 | 1013.6 |
| 20260905061431 | 78 | 360 | 0.9 | 2.6 | 0.00 | 0.00 | 0.00 | 85 | 1013.6 |
| 20260905061320 | 78 | 360 | 1.7 | 2.6 | 0.00 | 0.00 | 0.00 | 85 | 1013.6 |
| 20260905061226 | 78 | 5 | 1.7 | 2.6 | 0.00 | 0.00 | 0.00 | 85 | 1013.6 |
| 20260905061134 | 78 | 9 | 1.7 | 2.6 | 0.00 | 0.00 | 0.00 | 85 | 1013.6 |
| 20260905061020 | 78 | 9 | 1.7 | 2.6 | 0.00 | 0.00 | 0.00 | 86 | 1013.7 |
| 20260905060927 | 78 | 9 | 1.7 | 2.6 | 0.00 | 0.00 | 0.00 | 86 | 1013.6 |
| 20260905060819 | 78 | 9 | 1.7 | 2.6 | 0.00 | 0.00 | 0.00 | 86 | 1013.7 |
| 20260905060726 | 78 | 9 | 1.7 | 2.6 | 0.00 | 0.00 | 0.00 | 86 | 1013.6 |
| 20260905060633 | 78 | 13 | 1.7 | 2.6 | 0.00 | 0.00 | 0.00 | 85 | 1013.7 |
| 20260905060520 | 78 | 24 | 1.7 | 2.6 | 0.00 | 0.00 | 0.00 | 86 | 1013.7 |
| 20260905060427 | 78 | 17 | 1.7 | 2.6 | 0.00 | 0.00 | 0.00 | 86 | 1013.7 |
| 20260905060339 | 78 | 17 | 1.7 | 2.6 | 0.00 | 0.00 | 0.00 | 86 | 1013.6 |
| 20260905060309 | 78 | 17 | 1.7 | 2.6 | 0.00 | 0.00 | 0.00 | 85 | 1013.6 |
| 20260905060024 | 78 | 17 | 1.7 | 2.6 | 0.00 | 0.00 | 0.00 | 85 | 1013.7 |
| 20260905055932 | 78 | 17 | 1.7 | 2.6 | 0.00 | 0.00 | 0.00 | 85 | 1013.7 |
| 20260905055821 | 78 | 17 | 1.7 | 2.6 | 0.00 | 0.00 | 0.00 | 85 | 1013.7 |
| 20260905055730 | 78 | 17 | 1.7 | 2.6 | 0.00 | 0.00 | 0.00 | 85 | 1013.7 |
| 20260905055636 | 78 | 17 | 0.9 | 2.6 | 0.00 | 0.00 | 0.00 | 84 | 1013.7 |
| 20260905055544 | 78 | 17 | 0.9 | 2.6 | 0.00 | 0.00 | 0.00 | 84 | 1013.7 |
| 20260905055429 | 78 | 17 | 0.9 | 2.6 | 0.00 | 0.00 | 0.00 | 84 | 1013.7 |
| 20260905055357 | 78 | 17 | 0.9 | 2.6 | 0.00 | 0.00 | 0.00 | 85 | 1013.7 |
| 20260905055243 | 78 | 17 | 0.9 | 2.6 | 0.00 | 0.00 | 0.00 | 85 | 1013.6 |
| 20260905055128 | 78 | 17 | 1.7 | 2.6 | 0.00 | 0.00 | 0.00 | 85 | 1013.6 |
| 20260905055019 | 78 | 17 | 1.7 | 2.6 | 0.00 | 0.00 | 0.00 | 85 | 1013.7 |
| 20260905054925 | 78 | 17 | 1.7 | 2.6 | 0.00 | 0.00 | 0.00 | 85 | 1013.6 |
| 20260905054852 | 78 | 17 | 1.7 | 2.6 | 0.00 | 0.00 | 0.00 | 85 | 1013.6 |
| 20260905054821 | 78 | 17 | 1.7 | 2.6 | 0.00 | 0.00 | 0.00 | 85 | 1013.6 |
| 20260905054533 | 78 | 17 | 1.7 | 2.6 | 0.00 | 0.00 | 0.00 | 85 | 1013.8 |
| 20260905054424 | 78 | 17 | 1.7 | 2.6 | 0.00 | 0.00 | 0.00 | 85 | 1013.8 |
| 20260905054332 | 78 | 17 | 0.9 | 2.6 | 0.00 | 0.00 | 0.00 | 85 | 1013.7 |
| 20260905054239 | 78 | 17 | 0.9 | 3.5 | 0.00 | 0.00 | 0.00 | 85 | 1013.7 |
| 20260905054125 | 78 | 17 | 0.9 | 3.5 | 0.00 | 0.00 | 0.00 | 85 | 1013.7 |
| 20260905054053 | 78 | 17 | 0.9 | 3.5 | 0.00 | 0.00 | 0.00 | 85 | 1013.7 |
| 20260905053939 | 78 | 17 | 0.9 | 3.5 | 0.00 | 0.00 | 0.00 | 85 | 1013.8 |
| 20260905053825 | 78 | 17 | 1.7 | 3.5 | 0.00 | 0.00 | 0.00 | 85 | 1013.7 |
| 20260905053735 | 78 | 17 | 1.7 | 3.5 | 0.00 | 0.00 | 0.00 | 85 | 1013.7 |
| 20260905053622 | 78 | 17 | 1.7 | 3.5 | 0.00 | 0.00 | 0.00 | 85 | 1013.6 |
| 20260905053529 | 78 | 17 | 2.6 | 3.5 | 0.00 | 0.00 | 0.00 | 85 | 1013.5 |
| 20260905053436 | 78 | 17 | 2.6 | 3.5 | 0.00 | 0.00 | 0.00 | 84 | 1013.7 |
| 20260905053344 | 78 | 17 | 1.7 | 2.6 | 0.00 | 0.00 | 0.00 | 83 | 1013.6 |
| 20260905053257 | 78 | 17 | 1.7 | 2.6 | 0.00 | 0.00 | 0.00 | 83 | 1013.6 |
| 20260905053031 | 78 | 17 | 1.7 | 2.6 | 0.00 | 0.00 | 0.00 | 83 | 1013.5 |
| 20260905052937 | 78 | 17 | 1.7 | 2.6 | 0.00 | 0.00 | 0.00 | 84 | 1013.5 |
| 20260905052824 | 78 | 17 | 1.7 | 1.7 | 0.00 | 0.00 | 0.00 | 84 | 1013.7 |
| 20260905052752 | 78 | 17 | 0.9 | 1.7 | 0.00 | 0.00 | 0.00 | 84 | 1013.6 |
| 20260905052620 | 78 | 17 | 0.0 | 1.7 | 0.00 | 0.00 | 0.00 | 84 | 1013.6 |
| 20260905052527 | 78 | 17 | 0.0 | 1.7 | 0.00 | 0.00 | 0.00 | 84 | 1013.6 |
| 20260905052433 | 78 | 17 | 0.0 | 1.7 | 0.00 | 0.00 | 0.00 | 84 | 1013.5 |
| 20260905052319 | 78 | 17 | 0.0 | 1.7 | 0.00 | 0.00 | 0.00 | 84 | 1013.7 |
| 20260905052226 | 78 | 17 | 0.9 | 1.7 | 0.00 | 0.00 | 0.00 | 84 | 1013.5 |
| 20260905052133 | 78 | 17 | 0.9 | 1.7 | 0.00 | 0.00 | 0.00 | 84 | 1013.5 |
| 20260905052022 | 78 | 17 | 0.0 | 1.7 | 0.00 | 0.00 | 0.00 | 84 | 1013.5 |
| 20260905051930 | 78 | 17 | 0.0 | 0.9 | 0.00 | 0.00 | 0.00 | 84 | 1013.5 |
| 20260905051828 | 78 | 17 | 0.0 | 0.9 | 0.00 | 0.00 | 0.00 | 84 | 1013.5 |
| 20260905051540 | 78 | 17 | 0.0 | 0.9 | 0.00 | 0.00 | 0.00 | 84 | 1013.5 |
| 20260905051446 | 78 | 17 | 0.0 | 0.9 | 0.00 | 0.00 | 0.00 | 84 | 1013.6 |
| 20260905051336 | 78 | 17 | 0.0 | 0.9 | 0.00 | 0.00 | 0.00 | 84 | 1013.5 |
| 20260905051243 | 78 | 17 | 0.0 | 0.9 | 0.00 | 0.00 | 0.00 | 84 | 1013.7 |
| 20260905051130 | 78 | 17 | 0.0 | 0.0 | 0.00 | 0.00 | 0.00 | 84 | 1013.7 |
| 20260905051019 | 78 | 17 | 0.0 | 0.0 | 0.00 | 0.00 | 0.00 | 85 | 1013.7 |
| 20260905050925 | 78 | 17 | 0.0 | 0.9 | 0.00 | 0.00 | 0.00 | 84 | 1013.7 |
| 20260905050853 | 78 | 17 | 0.0 | 0.9 | 0.00 | 0.00 | 0.00 | 85 | 1013.7 |
| 20260905050721 | 78 | 17 | 0.0 | 0.9 | 0.00 | 0.00 | 0.00 | 85 | 1013.7 |
| 20260905050628 | 78 | 17 | 0.0 | 0.9 | 0.00 | 0.00 | 0.00 | 85 | 1013.6 |
| 20260905050535 | 78 | 17 | 0.0 | 0.9 | 0.00 | 0.00 | 0.00 | 85 | 1013.7 |
| 20260905050421 | 78 | 17 | 0.0 | 1.7 | 0.00 | 0.00 | 0.00 | 84 | 1013.6 |
| 20260905050323 | 78 | 17 | 0.0 | 1.7 | 0.00 | 0.00 | 0.00 | 84 | 1013.7 |
| 20260905050036 | 78 | 17 | 0.0 | 1.7 | 0.00 | 0.00 | 0.00 | 85 | 1013.7 |
| 20260905045923 | 78 | 17 | 0.0 | 2.6 | 0.00 | 0.00 | 0.00 | 85 | 1013.7 |
| 20260905045831 | 78 | 17 | 0.0 | 2.6 | 0.00 | 0.00 | 0.00 | 85 | 1013.8 |
| 20260905045718 | 78 | 17 | 0.9 | 2.6 | 0.00 | 0.00 | 0.00 | 85 | 1013.8 |
| 20260905045630 | 78 | 17 | 0.9 | 2.6 | 0.00 | 0.00 | 0.00 | 85 | 1013.8 |
| 20260905045537 | 78 | 17 | 0.9 | 2.6 | 0.00 | 0.00 | 0.00 | 85 | 1013.8 |
| 20260905045424 | 78 | 17 | 0.9 | 2.6 | 0.00 | 0.00 | 0.00 | 84 | 1013.7 |
| 20260905045332 | 78 | 17 | 0.9 | 2.6 | 0.00 | 0.00 | 0.00 | 84 | 1013.7 |
| 20260905045219 | 78 | 17 | 0.9 | 2.6 | 0.00 | 0.00 | 0.00 | 84 | 1013.7 |
| 20260905045127 | 78 | 17 | 0.9 | 2.6 | 0.00 | 0.00 | 0.00 | 84 | 1013.7 |
| 20260905045058 | 78 | 17 | 1.7 | 2.6 | 0.00 | 0.00 | 0.00 | 84 | 1013.8 |
| 20260905044924 | 78 | 17 | 1.7 | 2.6 | 0.00 | 0.00 | 0.00 | 84 | 1013.8 |
| 20260905044851 | 78 | 17 | 1.7 | 2.6 | 0.00 | 0.00 | 0.00 | 84 | 1013.8 |
| 20260905044800 | 78 | 17 | 1.7 | 2.6 | 0.00 | 0.00 | 0.00 | 84 | 1013.8 |
| 20260905044532 | 78 | 17 | 1.7 | 2.6 | 0.00 | 0.00 | 0.00 | 84 | 1013.7 |
| 20260905044423 | 78 | 17 | 1.7 | 2.6 | 0.00 | 0.00 | 0.00 | 84 | 1013.7 |
| 20260905044329 | 78 | 17 | 1.7 | 2.6 | 0.00 | 0.00 | 0.00 | 83 | 1013.8 |
| 20260905044236 | 78 | 17 | 1.7 | 2.6 | 0.00 | 0.00 | 0.00 | 82 | 1013.8 |
| 20260905044121 | 78 | 17 | 1.7 | 2.6 | 0.00 | 0.00 | 0.00 | 82 | 1013.8 |
| 20260905044029 | 78 | 17 | 1.7 | 2.6 | 0.00 | 0.00 | 0.00 | 83 | 1013.8 |
| 20260905043919 | 78 | 17 | 1.7 | 2.6 | 0.00 | 0.00 | 0.00 | 82 | 1013.7 |
| 20260905043827 | 78 | 17 | 1.7 | 2.6 | 0.00 | 0.00 | 0.00 | 82 | 1013.7 |
| 20260905043733 | 78 | 17 | 0.9 | 1.7 | 0.00 | 0.00 | 0.00 | 82 | 1013.7 |
| 20260905043619 | 78 | 17 | 0.9 | 1.7 | 0.00 | 0.00 | 0.00 | 83 | 1013.7 |
| 20260905043547 | 79 | 17 | 0.9 | 1.7 | 0.00 | 0.00 | 0.00 | 83 | 1013.7 |
| 20260905043433 | 79 | 17 | 0.9 | 1.7 | 0.00 | 0.00 | 0.00 | 84 | 1013.7 |
| 20260905043323 | 79 | 17 | 0.9 | 1.7 | 0.00 | 0.00 | 0.00 | 84 | 1013.8 |
| 20260905043255 | 79 | 17 | 0.9 | 1.7 | 0.00 | 0.00 | 0.00 | 84 | 1013.8 |
| 20260905043028 | 79 | 17 | 0.9 | 1.7 | 0.00 | 0.00 | 0.00 | 83 | 1013.9 |
| 20260905042934 | 79 | 17 | 0.9 | 1.7 | 0.00 | 0.00 | 0.00 | 83 | 1013.9 |
| 20260905042822 | 79 | 17 | 0.9 | 1.7 | 0.00 | 0.00 | 0.00 | 83 | 1013.8 |
| 20260905042734 | 79 | 17 | 1.7 | 1.7 | 0.00 | 0.00 | 0.00 | 82 | 1013.9 |
| 20260905042641 | 79 | 17 | 0.9 | 1.7 | 0.00 | 0.00 | 0.00 | 82 | 1013.8 |
| 20260905042526 | 79 | 17 | 0.0 | 0.9 | 0.00 | 0.00 | 0.00 | 82 | 1013.8 |
| 20260905042432 | 79 | 17 | 0.0 | 0.0 | 0.00 | 0.00 | 0.00 | 84 | 1013.9 |
| 20260905042319 | 79 | 17 | 0.0 | 0.0 | 0.00 | 0.00 | 0.00 | 84 | 1013.8 |
| 20260905042226 | 79 | 17 | 0.0 | 0.0 | 0.00 | 0.00 | 0.00 | 83 | 1013.8 |
| 20260905042137 | 79 | 17 | 0.0 | 0.0 | 0.00 | 0.00 | 0.00 | 84 | 1013.9 |
| 20260905042044 | 79 | 17 | 0.0 | 0.0 | 0.00 | 0.00 | 0.00 | 84 | 1013.9 |
| 20260905041930 | 79 | 17 | 0.0 | 0.0 | 0.00 | 0.00 | 0.00 | 84 | 1013.8 |
| 20260905041837 | 79 | 17 | 0.0 | 0.0 | 0.00 | 0.00 | 0.00 | 84 | 1013.8 |
| 20260905041751 | 79 | 17 | 0.0 | 0.0 | 0.00 | 0.00 | 0.00 | 84 | 1013.9 |
| 20260905041524 | 79 | 17 | 0.0 | 0.0 | 0.00 | 0.00 | 0.00 | 84 | 1013.8 |
| 20260905041431 | 79 | 17 | 0.0 | 0.0 | 0.00 | 0.00 | 0.00 | 84 | 1013.8 |
| 20260905041338 | 79 | 17 | 0.0 | 0.0 | 0.00 | 0.00 | 0.00 | 84 | 1013.8 |
| 20260905041225 | 79 | 17 | 0.0 | 0.0 | 0.00 | 0.00 | 0.00 | 84 | 1013.8 |
| 20260905041132 | 79 | 17 | 0.0 | 0.0 | 0.00 | 0.00 | 0.00 | 84 | 1013.8 |
| 20260905041022 | 79 | 17 | 0.0 | 0.0 | 0.00 | 0.00 | 0.00 | 84 | 1013.7 |
| 20260905040930 | 79 | 17 | 0.0 | 0.0 | 0.00 | 0.00 | 0.00 | 83 | 1013.8 |
| 20260905040837 | 79 | 17 | 0.0 | 0.0 | 0.00 | 0.00 | 0.00 | 84 | 1013.8 |
| 20260905040724 | 79 | 17 | 0.0 | 0.0 | 0.00 | 0.00 | 0.00 | 84 | 1013.8 |
| 20260905040630 | 79 | 17 | 0.0 | 0.0 | 0.00 | 0.00 | 0.00 | 84 | 1013.8 |
| 20260905040536 | 79 | 17 | 0.0 | 0.9 | 0.00 | 0.00 | 0.00 | 84 | 1013.8 |
| 20260905040426 | 79 | 17 | 0.0 | 0.9 | 0.00 | 0.00 | 0.00 | 84 | 1013.9 |
| 20260905040305 | 79 | 17 | 0.0 | 1.7 | 0.00 | 0.00 | 0.00 | 84 | 1013.8 |
| 20260905040057 | 79 | 17 | 0.0 | 1.7 | 0.00 | 0.00 | 0.00 | 84 | 1013.8 |
| 20260905035924 | 79 | 17 | 0.0 | 1.7 | 0.00 | 0.00 | 0.00 | 84 | 1013.8 |
| 20260905035834 | 79 | 17 | 0.0 | 1.7 | 0.00 | 0.00 | 0.00 | 83 | 1013.9 |
| 20260905035722 | 79 | 17 | 0.9 | 1.7 | 0.00 | 0.00 | 0.00 | 83 | 1013.9 |
| 20260905035629 | 79 | 17 | 0.9 | 1.7 | 0.00 | 0.00 | 0.00 | 83 | 1013.9 |
| 20260905035534 | 79 | 17 | 0.9 | 1.7 | 0.00 | 0.00 | 0.00 | 83 | 1013.9 |
| 20260905035423 | 79 | 17 | 0.9 | 1.7 | 0.00 | 0.00 | 0.00 | 83 | 1013.9 |
| 20260905035333 | 79 | 17 | 0.9 | 1.7 | 0.00 | 0.00 | 0.00 | 83 | 1013.9 |
| 20260905035241 | 79 | 17 | 0.9 | 1.7 | 0.00 | 0.00 | 0.00 | 83 | 1013.8 |
| 20260905035127 | 79 | 17 | 0.9 | 1.7 | 0.00 | 0.00 | 0.00 | 83 | 1013.8 |
| 20260905035035 | 79 | 17 | 0.9 | 1.7 | 0.00 | 0.00 | 0.00 | 83 | 1013.9 |
| 20260905034942 | 79 | 17 | 0.0 | 0.9 | 0.00 | 0.00 | 0.00 | 83 | 1014.0 |
| 20260905034828 | 79 | 17 | 0.0 | 0.9 | 0.00 | 0.00 | 0.00 | 84 | 1013.9 |
| 20260905034803 | 79 | 17 | 0.0 | 0.0 | 0.00 | 0.00 | 0.00 | 84 | 1013.9 |
| 20260905034536 | 79 | 17 | 0.0 | 0.0 | 0.00 | 0.00 | 0.00 | 84 | 1013.9 |
| 20260905034421 | 79 | 17 | 0.0 | 0.0 | 0.00 | 0.00 | 0.00 | 84 | 1013.9 |
| 20260905034328 | 79 | 17 | 0.0 | 0.0 | 0.00 | 0.00 | 0.00 | 84 | 1013.9 |
| 20260905034235 | 79 | 17 | 0.0 | 0.0 | 0.00 | 0.00 | 0.00 | 83 | 1013.9 |
| 20260905034143 | 79 | 17 | 0.0 | 0.0 | 0.00 | 0.00 | 0.00 | 83 | 1014.0 |
| 20260905034034 | 79 | 17 | 0.0 | 0.0 | 0.00 | 0.00 | 0.00 | 83 | 1014.0 |
| 20260905033919 | 79 | 17 | 0.0 | 1.7 | 0.00 | 0.00 | 0.00 | 83 | 1014.0 |
| 20260905033825 | 79 | 17 | 0.0 | 1.7 | 0.00 | 0.00 | 0.00 | 83 | 1013.9 |
| 20260905033732 | 79 | 17 | 0.0 | 1.7 | 0.00 | 0.00 | 0.00 | 83 | 1014.0 |
| 20260905033620 | 80 | 17 | 0.0 | 1.7 | 0.00 | 0.00 | 0.00 | 83 | 1014.0 |
| 20260905033531 | 80 | 17 | 0.0 | 1.7 | 0.00 | 0.00 | 0.00 | 83 | 1014.0 |
| 20260905033437 | 80 | 17 | 0.0 | 1.7 | 0.00 | 0.00 | 0.00 | 83 | 1014.0 |
| 20260905033343 | 80 | 17 | 0.0 | 1.7 | 0.00 | 0.00 | 0.00 | 83 | 1014.0 |
| 20260905033311 | 80 | 17 | 0.9 | 1.7 | 0.00 | 0.00 | 0.00 | 84 | 1014.0 |
| 20260905033023 | 80 | 17 | 0.0 | 0.9 | 0.00 | 0.00 | 0.00 | 84 | 1013.9 |
| 20260905032934 | 80 | 17 | 0.0 | 0.9 | 0.00 | 0.00 | 0.00 | 83 | 1014.0 |
| 20260905032820 | 80 | 17 | 0.0 | 0.9 | 0.00 | 0.00 | 0.00 | 83 | 1014.0 |
| 20260905032747 | 80 | 17 | 0.0 | 0.9 | 0.00 | 0.00 | 0.00 | 83 | 1014.0 |
| 20260905032632 | 80 | 17 | 0.0 | 0.9 | 0.00 | 0.00 | 0.00 | 83 | 1014.1 |
| 20260905032518 | 80 | 17 | 0.0 | 0.9 | 0.00 | 0.00 | 0.00 | 83 | 1014.1 |
| 20260905032427 | 80 | 17 | 0.0 | 0.9 | 0.00 | 0.00 | 0.00 | 82 | 1014.1 |
| 20260905032337 | 80 | 17 | 0.0 | 0.9 | 0.00 | 0.00 | 0.00 | 83 | 1014.1 |
| 20260905032223 | 80 | 17 | 0.0 | 0.9 | 0.00 | 0.00 | 0.00 | 83 | 1014.1 |
| 20260905032131 | 80 | 17 | 0.0 | 0.9 | 0.00 | 0.00 | 0.00 | 83 | 1014.1 |
| 20260905032019 | 80 | 17 | 0.0 | 0.9 | 0.00 | 0.00 | 0.00 | 83 | 1014.1 |
| 20260905031925 | 80 | 17 | 0.0 | 0.9 | 0.00 | 0.00 | 0.00 | 83 | 1014.1 |
| 20260905031834 | 80 | 17 | 0.0 | 0.0 | 0.00 | 0.00 | 0.00 | 83 | 1014.1 |
| 20260905031804 | 80 | 17 | 0.0 | 0.0 | 0.00 | 0.00 | 0.00 | 83 | 1014.1 |
| 20260905031536 | 80 | 17 | 0.0 | 0.9 | 0.00 | 0.00 | 0.00 | 83 | 1014.1 |
| 20260905031423 | 80 | 17 | 0.0 | 0.9 | 0.00 | 0.00 | 0.00 | 82 | 1014.1 |
| 20260905031351 | 80 | 17 | 0.0 | 0.9 | 0.00 | 0.00 | 0.00 | 82 | 1014.1 |
| 20260905031219 | 81 | 17 | 0.0 | 0.9 | 0.00 | 0.00 | 0.00 | 82 | 1014.0 |
| 20260905031127 | 81 | 17 | 0.0 | 2.6 | 0.00 | 0.00 | 0.00 | 82 | 1014.1 |
| 20260905031034 | 80 | 17 | 0.0 | 2.6 | 0.00 | 0.00 | 0.00 | 82 | 1014.1 |
| 20260905030920 | 81 | 17 | 0.0 | 2.6 | 0.00 | 0.00 | 0.00 | 81 | 1014.1 |
| 20260905030827 | 81 | 17 | 0.0 | 2.6 | 0.00 | 0.00 | 0.00 | 81 | 1014.0 |
| 20260905030718 | 81 | 17 | 0.0 | 2.6 | 0.00 | 0.00 | 0.00 | 82 | 1014.1 |
| 20260905030626 | 81 | 17 | 0.0 | 2.6 | 0.00 | 0.00 | 0.00 | 81 | 1014.0 |
| 20260905030532 | 80 | 17 | 0.0 | 2.6 | 0.00 | 0.00 | 0.00 | 80 | 1014.1 |
| 20260905030419 | 81 | 17 | 0.0 | 2.6 | 0.00 | 0.00 | 0.00 | 80 | 1014.1 |
| 20260905030348 | 80 | 17 | 0.0 | 2.6 | 0.00 | 0.00 | 0.00 | 80 | 1014.2 |
| 20260905030301 | 81 | 17 | 0.0 | 0.9 | 0.00 | 0.00 | 0.00 | 80 | 1014.2 |
| 20260905030034 | 80 | 11 | 0.0 | 0.9 | 0.00 | 0.00 | 0.00 | 80 | 1014.2 |
| 20260905025940 | 81 | 11 | 0.0 | 0.9 | 0.00 | 0.00 | 0.00 | 81 | 1014.2 |
| 20260905025824 | 81 | 11 | 0.0 | 0.9 | 0.00 | 0.00 | 0.00 | 81 | 1014.1 |
| 20260905025732 | 81 | 11 | 0.0 | 0.9 | 0.00 | 0.00 | 0.00 | 80 | 1014.2 |
| 20260905025619 | 81 | 11 | 0.0 | 0.9 | 0.00 | 0.00 | 0.00 | 80 | 1014.2 |
| 20260905025546 | 81 | 11 | 0.0 | 0.9 | 0.00 | 0.00 | 0.00 | 80 | 1014.2 |
| 20260905025436 | 81 | 11 | 0.0 | 1.7 | 0.00 | 0.00 | 0.00 | 80 | 1014.3 |
| 20260905025343 | 81 | 11 | 0.0 | 1.7 | 0.00 | 0.00 | 0.00 | 80 | 1014.3 |
| 20260905025229 | 81 | 11 | 0.0 | 1.7 | 0.00 | 0.00 | 0.00 | 80 | 1014.3 |
| 20260905025157 | 81 | 11 | 0.0 | 1.7 | 0.00 | 0.00 | 0.00 | 79 | 1014.2 |
| 20260905025022 | 81 | 11 | 0.0 | 1.7 | 0.00 | 0.00 | 0.00 | 79 | 1014.3 |
| 20260905024929 | 81 | 11 | 0.0 | 1.7 | 0.00 | 0.00 | 0.00 | 79 | 1014.2 |
| 20260905024840 | 81 | 11 | 0.0 | 1.7 | 0.00 | 0.00 | 0.00 | 79 | 1014.3 |
| 20260905024810 | 81 | 11 | 0.9 | 1.7 | 0.00 | 0.00 | 0.00 | 79 | 1014.3 |
| 20260905024522 | 81 | 11 | 0.9 | 2.6 | 0.00 | 0.00 | 0.00 | 79 | 1014.3 |
| 20260905024450 | 81 | 11 | 0.9 | 2.6 | 0.00 | 0.00 | 0.00 | 79 | 1014.3 |
| 20260905024336 | 81 | 11 | 0.9 | 2.6 | 0.00 | 0.00 | 0.00 | 79 | 1014.4 |
| 20260905024228 | 81 | 11 | 0.9 | 2.6 | 0.00 | 0.00 | 0.00 | 79 | 1014.3 |
| 20260905024134 | 81 | 11 | 0.9 | 2.6 | 0.00 | 0.00 | 0.00 | 79 | 1014.3 |
| 20260905024042 | 81 | 11 | 0.9 | 2.6 | 0.00 | 0.00 | 0.00 | 79 | 1014.3 |
| 20260905023949 | 81 | 11 | 1.7 | 2.6 | 0.00 | 0.00 | 0.00 | 79 | 1014.4 |
| 20260905023854 | 81 | 11 | 1.7 | 2.6 | 0.00 | 0.00 | 0.00 | 79 | 1014.4 |
| 20260905023740 | 81 | 11 | 1.7 | 2.6 | 0.00 | 0.00 | 0.00 | 79 | 1014.3 |
| 20260905023627 | 81 | 11 | 1.7 | 2.6 | 0.00 | 0.00 | 0.00 | 78 | 1014.4 |
| 20260905023517 | 81 | 11 | 0.9 | 2.6 | 0.00 | 0.00 | 0.00 | 77 | 1014.3 |
| 20260905023425 | 81 | 11 | 0.9 | 2.6 | 0.00 | 0.00 | 0.00 | 78 | 1014.4 |
| 20260905023332 | 81 | 11 | 0.9 | 2.6 | 0.00 | 0.00 | 0.00 | 78 | 1014.4 |
| 20260905023302 | 81 | 11 | 0.9 | 2.6 | 0.00 | 0.00 | 0.00 | 78 | 1014.4 |
| 20260905023055 | 81 | 11 | 1.7 | 2.6 | 0.00 | 0.00 | 0.00 | 77 | 1014.3 |
| 20260905022924 | 81 | 34 | 1.7 | 2.6 | 0.00 | 0.00 | 0.00 | 76 | 1014.4 |
| 20260905022831 | 81 | 5 | 0.9 | 2.6 | 0.00 | 0.00 | 0.00 | 77 | 1014.4 |
| 20260905022718 | 81 | 5 | 0.0 | 1.7 | 0.00 | 0.00 | 0.00 | 77 | 1014.5 |
| 20260905022625 | 81 | 5 | 0.0 | 1.7 | 0.00 | 0.00 | 0.00 | 77 | 1014.3 |
| 20260905022533 | 81 | 5 | 0.0 | 1.7 | 0.00 | 0.00 | 0.00 | 78 | 1014.4 |
| 20260905022420 | 81 | 5 | 0.9 | 1.7 | 0.00 | 0.00 | 0.00 | 78 | 1014.4 |
| 20260905022331 | 81 | 5 | 0.9 | 1.7 | 0.00 | 0.00 | 0.00 | 78 | 1014.3 |
| 20260905022237 | 81 | 5 | 0.9 | 1.7 | 0.00 | 0.00 | 0.00 | 78 | 1014.3 |
| 20260905022143 | 81 | 5 | 0.9 | 1.7 | 0.00 | 0.00 | 0.00 | 78 | 1014.4 |
| 20260905022028 | 81 | 5 | 0.9 | 1.7 | 0.00 | 0.00 | 0.00 | 78 | 1014.4 |
| 20260905021935 | 81 | 5 | 0.9 | 1.7 | 0.00 | 0.00 | 0.00 | 78 | 1014.3 |
| 20260905021824 | 81 | 5 | 0.0 | 1.7 | 0.00 | 0.00 | 0.00 | 78 | 1014.4 |
| 20260905021800 | 81 | 5 | 0.0 | 1.7 | 0.00 | 0.00 | 0.00 | 77 | 1014.4 |
| 20260905021532 | 81 | 5 | 0.9 | 1.7 | 0.00 | 0.00 | 0.00 | 77 | 1014.4 |
| 20260905021418 | 81 | 5 | 0.9 | 1.7 | 0.00 | 0.00 | 0.00 | 77 | 1014.3 |
| 20260905021325 | 81 | 5 | 0.9 | 1.7 | 0.00 | 0.00 | 0.00 | 77 | 1014.3 |
| 20260905021254 | 81 | 5 | 0.9 | 1.7 | 0.00 | 0.00 | 0.00 | 78 | 1014.3 |
| 20260905021123 | 81 | 46 | 0.9 | 1.7 | 0.00 | 0.00 | 0.00 | 78 | 1014.4 |
| 20260905021031 | 81 | 46 | 0.9 | 1.7 | 0.00 | 0.00 | 0.00 | 78 | 1014.3 |
| 20260905020918 | 81 | 46 | 0.0 | 1.7 | 0.00 | 0.00 | 0.00 | 77 | 1014.3 |
| 20260905020845 | 81 | 46 | 0.0 | 1.7 | 0.00 | 0.00 | 0.00 | 77 | 1014.2 |
| 20260905020731 | 81 | 46 | 0.0 | 1.7 | 0.00 | 0.00 | 0.00 | 77 | 1014.3 |
| 20260905020620 | 81 | 46 | 0.0 | 1.7 | 0.00 | 0.00 | 0.00 | 77 | 1014.3 |
| 20260905020528 | 81 | 46 | 0.9 | 1.7 | 0.00 | 0.00 | 0.00 | 78 | 1014.3 |
| 20260905020435 | 81 | 46 | 0.9 | 1.7 | 0.00 | 0.00 | 0.00 | 78 | 1014.3 |
| 20260905020322 | 82 | 46 | 0.9 | 1.7 | 0.00 | 0.00 | 0.00 | 77 | 1014.3 |
| 20260905020254 | 82 | 46 | 0.9 | 1.7 | 0.00 | 0.00 | 0.00 | 77 | 1014.3 |
| 20260905020031 | 82 | 30 | 0.0 | 1.7 | 0.00 | 0.00 | 0.00 | 77 | 1014.3 |
| 20260905015918 | 82 | 5 | 0.0 | 0.9 | 0.00 | 0.00 | 0.00 | 77 | 1014.3 |
| 20260905015827 | 82 | 5 | 0.0 | 0.9 | 0.00 | 0.00 | 0.00 | 76 | 1014.3 |
| 20260905015735 | 82 | 5 | 0.0 | 0.9 | 0.00 | 0.00 | 0.00 | 76 | 1014.3 |
| 20260905015640 | 82 | 5 | 0.0 | 0.9 | 0.00 | 0.00 | 0.00 | 76 | 1014.3 |
| 20260905015528 | 82 | 5 | 0.0 | 1.7 | 0.00 | 0.00 | 0.00 | 76 | 1014.4 |
| 20260905015419 | 82 | 5 | 0.0 | 1.7 | 0.00 | 0.00 | 0.00 | 75 | 1014.3 |
| 20260905015327 | 82 | 5 | 0.0 | 1.7 | 0.00 | 0.00 | 0.00 | 75 | 1014.2 |
| 20260905015234 | 82 | 5 | 0.0 | 1.7 | 0.00 | 0.00 | 0.00 | 75 | 1014.3 |
| 20260905015121 | 82 | 5 | 0.0 | 2.6 | 0.00 | 0.00 | 0.00 | 75 | 1014.4 |
| 20260905015048 | 82 | 5 | 0.0 | 2.6 | 0.00 | 0.00 | 0.00 | 75 | 1014.4 |
| 20260905014933 | 82 | 5 | 0.0 | 2.6 | 0.00 | 0.00 | 0.00 | 75 | 1014.3 |
| 20260905014824 | 82 | 5 | 0.9 | 2.6 | 0.00 | 0.00 | 0.00 | 75 | 1014.3 |
| 20260905014756 | 82 | 5 | 0.9 | 2.6 | 0.00 | 0.00 | 0.00 | 75 | 1014.3 |
| 20260905014530 | 82 | 5 | 0.9 | 2.6 | 0.00 | 0.00 | 0.00 | 76 | 1014.3 |
| 20260905014437 | 82 | 5 | 0.9 | 2.6 | 0.00 | 0.00 | 0.00 | 76 | 1014.4 |
| 20260905014328 | 82 | 5 | 1.7 | 2.6 | 0.00 | 0.00 | 0.00 | 77 | 1014.3 |
| 20260905014236 | 82 | 5 | 1.7 | 2.6 | 0.00 | 0.00 | 0.00 | 78 | 1014.3 |
| 20260905014142 | 82 | 5 | 0.9 | 1.7 | 0.00 | 0.00 | 0.00 | 77 | 1014.3 |
| 20260905014030 | 82 | 348 | 0.9 | 1.7 | 0.00 | 0.00 | 0.00 | 77 | 1014.3 |
| 20260905013936 | 82 | 348 | 0.9 | 1.7 | 0.00 | 0.00 | 0.00 | 77 | 1014.3 |
| 20260905013844 | 82 | 348 | 0.9 | 1.7 | 0.00 | 0.00 | 0.00 | 77 | 1014.3 |
| 20260905013734 | 82 | 348 | 0.0 | 0.9 | 0.00 | 0.00 | 0.00 | 77 | 1014.3 |
| 20260905013620 | 82 | 348 | 0.0 | 0.0 | 0.00 | 0.00 | 0.00 | 76 | 1014.4 |
| 20260905013529 | 82 | 348 | 0.0 | 0.0 | 0.00 | 0.00 | 0.00 | 76 | 1014.3 |
| 20260905013456 | 82 | 348 | 0.0 | 0.0 | 0.00 | 0.00 | 0.00 | 75 | 1014.3 |
| 20260905013341 | 82 | 348 | 0.0 | 0.0 | 0.00 | 0.00 | 0.00 | 75 | 1014.3 |
| 20260905013255 | 82 | 348 | 0.0 | 0.0 | 0.00 | 0.00 | 0.00 | 75 | 1014.3 |
| 20260905013028 | 82 | 348 | 0.0 | 0.0 | 0.00 | 0.00 | 0.00 | 76 | 1014.2 |
| 20260905012935 | 82 | 348 | 0.0 | 0.0 | 0.00 | 0.00 | 0.00 | 76 | 1014.3 |
| 20260905012821 | 82 | 348 | 0.0 | 0.0 | 0.00 | 0.00 | 0.00 | 76 | 1014.2 |
| 20260905012729 | 82 | 348 | 0.0 | 0.0 | 0.00 | 0.00 | 0.00 | 76 | 1014.2 |
| 20260905012637 | 82 | 348 | 0.0 | 0.0 | 0.00 | 0.00 | 0.00 | 76 | 1014.2 |
| 20260905012527 | 82 | 348 | 0.0 | 0.9 | 0.00 | 0.00 | 0.00 | 76 | 1014.2 |
| 20260905012434 | 82 | 348 | 0.0 | 0.9 | 0.00 | 0.00 | 0.00 | 76 | 1014.2 |
| 20260905012320 | 82 | 348 | 0.0 | 1.7 | 0.00 | 0.00 | 0.00 | 75 | 1014.2 |
| 20260905012247 | 82 | 348 | 0.0 | 1.7 | 0.00 | 0.00 | 0.00 | 76 | 1014.3 |
| 20260905012133 | 82 | 348 | 0.0 | 1.7 | 0.00 | 0.00 | 0.00 | 76 | 1014.2 |
| 20260905012040 | 82 | 348 | 0.0 | 1.7 | 0.00 | 0.00 | 0.00 | 75 | 1014.3 |
| 20260905011932 | 82 | 348 | 0.0 | 1.7 | 0.00 | 0.00 | 0.00 | 75 | 1014.3 |
| 20260905011859 | 82 | 348 | 0.0 | 1.7 | 0.00 | 0.00 | 0.00 | 76 | 1014.3 |
| 20260905011809 | 82 | 348 | 0.0 | 1.7 | 0.00 | 0.00 | 0.00 | 76 | 1014.3 |
| 20260905011522 | 82 | 348 | 0.9 | 1.7 | 0.00 | 0.00 | 0.00 | 75 | 1014.1 |
| 20260905011428 | 82 | 348 | 0.0 | 1.7 | 0.00 | 0.00 | 0.00 | 75 | 1014.2 |
| 20260905011318 | 82 | 348 | 0.0 | 0.9 | 0.00 | 0.00 | 0.00 | 75 | 1014.3 |
| 20260905011246 | 82 | 348 | 0.0 | 0.0 | 0.00 | 0.00 | 0.00 | 75 | 1014.3 |
| 20260905011132 | 82 | 348 | 0.0 | 0.0 | 0.00 | 0.00 | 0.00 | 75 | 1014.2 |
| 20260905011020 | 82 | 348 | 0.0 | 0.0 | 0.00 | 0.00 | 0.00 | 75 | 1014.2 |
| 20260905010928 | 82 | 348 | 0.0 | 0.0 | 0.00 | 0.00 | 0.00 | 74 | 1014.3 |
| 20260905010835 | 82 | 348 | 0.0 | 0.9 | 0.00 | 0.00 | 0.00 | 74 | 1014.1 |
| 20260905010727 | 83 | 348 | 0.0 | 2.6 | 0.00 | 0.00 | 0.00 | 74 | 1014.2 |
| 20260905010633 | 83 | 348 | 0.0 | 2.6 | 0.00 | 0.00 | 0.00 | 73 | 1014.1 |
| 20260905010521 | 83 | 348 | 0.0 | 2.6 | 0.00 | 0.00 | 0.00 | 73 | 1014.1 |
| 20260905010448 | 83 | 348 | 0.0 | 2.6 | 0.00 | 0.00 | 0.00 | 74 | 1014.1 |
| 20260905010355 | 83 | 348 | 0.0 | 2.6 | 0.00 | 0.00 | 0.00 | 74 | 1014.1 |
| 20260905010329 | 83 | 348 | 0.0 | 2.6 | 0.00 | 0.00 | 0.00 | 73 | 1014.1 |
| 20260905010021 | 83 | 348 | 1.7 | 2.6 | 0.00 | 0.00 | 0.00 | 74 | 1014.1 |
| 20260905005928 | 83 | 348 | 1.7 | 2.6 | 0.00 | 0.00 | 0.00 | 74 | 1014.1 |
| 20260905005834 | 83 | 333 | 1.7 | 2.6 | 0.00 | 0.00 | 0.00 | 73 | 1014.1 |
| 20260905005720 | 83 | 351 | 1.7 | 2.6 | 0.00 | 0.00 | 0.00 | 74 | 1014.1 |
| 20260905005627 | 83 | 351 | 1.7 | 2.6 | 0.00 | 0.00 | 0.00 | 74 | 1014.1 |
| 20260905005537 | 83 | 347 | 0.9 | 2.6 | 0.00 | 0.00 | 0.00 | 74 | 1014.1 |
| 20260905005424 | 83 | 347 | 0.9 | 2.6 | 0.00 | 0.00 | 0.00 | 74 | 1014.1 |
| 20260905005331 | 83 | 347 | 1.7 | 3.5 | 0.00 | 0.00 | 0.00 | 74 | 1014.1 |
| 20260905005239 | 83 | 337 | 1.7 | 3.5 | 0.00 | 0.00 | 0.00 | 74 | 1014.2 |
| 20260905005124 | 83 | 344 | 1.7 | 3.5 | 0.00 | 0.00 | 0.00 | 74 | 1014.1 |
| 20260905005032 | 83 | 322 | 1.7 | 3.5 | 0.00 | 0.00 | 0.00 | 75 | 1014.1 |
| 20260905004923 | 83 | 345 | 1.7 | 3.5 | 0.00 | 0.00 | 0.00 | 74 | 1014.2 |
| 20260905004831 | 83 | 342 | 1.7 | 3.5 | 0.00 | 0.00 | 0.00 | 75 | 1014.1 |
| 20260905004802 | 83 | 342 | 2.6 | 3.5 | 0.00 | 0.00 | 0.00 | 74 | 1014.1 |
| 20260905004531 | 83 | 334 | 2.6 | 3.5 | 0.00 | 0.00 | 0.00 | 74 | 1014.1 |
| 20260905004422 | 83 | 331 | 2.6 | 3.5 | 0.00 | 0.00 | 0.00 | 74 | 1014.1 |
| 20260905004329 | 83 | 342 | 2.6 | 4.3 | 0.00 | 0.00 | 0.00 | 74 | 1014.2 |
| 20260905004237 | 83 | 344 | 2.6 | 4.3 | 0.00 | 0.00 | 0.00 | 74 | 1014.1 |
| 20260905004124 | 83 | 329 | 2.6 | 4.3 | 0.00 | 0.00 | 0.00 | 74 | 1014.1 |
| 20260905004030 | 83 | 348 | 2.6 | 4.3 | 0.00 | 0.00 | 0.00 | 74 | 1014.1 |
| 20260905003922 | 83 | 346 | 2.6 | 4.3 | 0.00 | 0.00 | 0.00 | 74 | 1014.1 |
| 20260905003828 | 83 | 346 | 2.6 | 4.3 | 0.00 | 0.00 | 0.00 | 74 | 1014.1 |
| 20260905003733 | 83 | 323 | 3.5 | 4.3 | 0.00 | 0.00 | 0.00 | 74 | 1014.1 |
| 20260905003622 | 83 | 333 | 3.5 | 4.3 | 0.00 | 0.00 | 0.00 | 74 | 1014.0 |
| 20260905003529 | 83 | 343 | 3.5 | 4.3 | 0.00 | 0.00 | 0.00 | 74 | 1014.1 |
| 20260905003435 | 83 | 341 | 2.6 | 3.5 | 0.00 | 0.00 | 0.00 | 73 | 1014.1 |
| 20260905003326 | 83 | 337 | 2.6 | 3.5 | 0.00 | 0.00 | 0.00 | 74 | 1014.1 |
| 20260905003256 | 83 | 360 | 2.6 | 3.5 | 0.00 | 0.00 | 0.00 | 73 | 1014.1 |
| 20260905003030 | 83 | 5 | 2.6 | 3.5 | 0.00 | 0.00 | 0.00 | 73 | 1014.2 |
| 20260905002937 | 83 | 334 | 2.6 | 3.5 | 0.00 | 0.00 | 0.00 | 73 | 1014.1 |
| 20260905002828 | 84 | 323 | 1.7 | 3.5 | 0.00 | 0.00 | 0.00 | 73 | 1014.1 |
| 20260905002734 | 84 | 342 | 1.7 | 3.5 | 0.00 | 0.00 | 0.00 | 73 | 1014.0 |
| 20260905002621 | 84 | 339 | 1.7 | 3.5 | 0.00 | 0.00 | 0.00 | 72 | 1014.0 |
| 20260905002528 | 84 | 314 | 2.6 | 3.5 | 0.00 | 0.00 | 0.00 | 73 | 1014.1 |
| 20260905002435 | 84 | 344 | 2.6 | 3.5 | 0.00 | 0.00 | 0.00 | 73 | 1014.1 |
| 20260905002320 | 84 | 360 | 2.6 | 3.5 | 0.00 | 0.00 | 0.00 | 73 | 1014.1 |
| 20260905002232 | 84 | 329 | 2.6 | 3.5 | 0.00 | 0.00 | 0.00 | 73 | 1014.1 |
| 20260905002118 | 84 | 346 | 2.6 | 3.5 | 0.00 | 0.00 | 0.00 | 73 | 1014.0 |
| 20260905002025 | 84 | 340 | 2.6 | 3.5 | 0.00 | 0.00 | 0.00 | 73 | 1014.1 |
| 20260905001931 | 84 | 333 | 1.7 | 3.5 | 0.00 | 0.00 | 0.00 | 72 | 1014.0 |
| 20260905001859 | 84 | 334 | 1.7 | 2.6 | 0.00 | 0.00 | 0.00 | 72 | 1014.0 |
| 20260905001832 | 84 | 327 | 1.7 | 3.5 | 0.00 | 0.00 | 0.00 | 72 | 1014.0 |
| 20260905001544 | 84 | 328 | 1.7 | 3.5 | 0.00 | 0.00 | 0.00 | 72 | 1014.0 |
| 20260905001450 | 84 | 317 | 1.7 | 3.5 | 0.00 | 0.00 | 0.00 | 71 | 1014.1 |
| 20260905001336 | 84 | 347 | 1.7 | 3.5 | 0.00 | 0.00 | 0.00 | 72 | 1014.1 |
| 20260905001223 | 84 | 339 | 1.7 | 3.5 | 0.00 | 0.00 | 0.00 | 72 | 1014.1 |
| 20260905001128 | 84 | 323 | 1.7 | 3.5 | 0.00 | 0.00 | 0.00 | 72 | 1014.0 |
| 20260905001019 | 84 | 345 | 1.7 | 3.5 | 0.00 | 0.00 | 0.00 | 71 | 1014.1 |
| 20260905000927 | 84 | 329 | 2.6 | 4.3 | 0.00 | 0.00 | 0.00 | 71 | 1014.1 |
| 20260905000834 | 84 | 340 | 2.6 | 4.3 | 0.00 | 0.00 | 0.00 | 71 | 1014.0 |
| 20260905000721 | 84 | 349 | 2.6 | 4.3 | 0.00 | 0.00 | 0.00 | 72 | 1014.0 |
| 20260905000648 | 84 | 355 | 2.6 | 4.3 | 0.00 | 0.00 | 0.00 | 71 | 1014.0 |
| 20260905000553 | 84 | 355 | 1.7 | 4.3 | 0.00 | 0.00 | 0.00 | 71 | 1014.0 |
| 20260905000424 | 85 | 13 | 1.7 | 4.3 | 0.00 | 0.00 | 0.00 | 71 | 1014.1 |
| 20260905000350 | 85 | 340 | 2.6 | 4.3 | 0.00 | 0.00 | 0.00 | 71 | 1014.1 |
| 20260905000300 | 85 | 335 | 2.6 | 4.3 | 0.00 | 0.00 | 0.00 | 71 | 1014.1 |
| 20260905000032 | 85 | 315 | 1.7 | 5.2 | 0.00 | 0.00 | 0.00 | 71 | 1014.0 |
| 20260904235920 | 85 | 345 | 1.7 | 5.2 | 0.00 | 0.00 | 0.00 | 71 | 1014.0 |
| 20260904235830 | 85 | 285 | 2.6 | 5.2 | 0.00 | 0.00 | 0.00 | 71 | 1014.0 |
| 20260904235717 | 85 | 306 | 2.6 | 5.2 | 0.00 | 0.00 | 0.00 | 71 | 1014.0 |
| 20260904235624 | 85 | 273 | 2.6 | 5.2 | 0.00 | 0.00 | 0.00 | 71 | 1014.0 |
| 20260904235552 | 85 | 297 | 2.6 | 5.2 | 0.00 | 0.00 | 0.00 | 71 | 1014.1 |
| 20260904235437 | 85 | 312 | 2.6 | 5.2 | 0.00 | 0.00 | 0.00 | 71 | 1014.1 |
| 20260904235322 | 85 | 303 | 3.5 | 7.0 | 0.00 | 0.00 | 0.00 | 71 | 1014.1 |
| 20260904235229 | 85 | 313 | 2.6 | 7.0 | 0.00 | 0.00 | 0.00 | 71 | 1014.0 |
| 20260904235121 | 85 | 323 | 0.9 | 7.0 | 0.00 | 0.00 | 0.00 | 71 | 1014.0 |
| 20260904235027 | 85 | 321 | 1.7 | 7.0 | 0.00 | 0.00 | 0.00 | 71 | 1014.1 |
| 20260904234934 | 85 | 297 | 1.7 | 7.0 | 0.00 | 0.00 | 0.00 | 71 | 1014.1 |
| 20260904234821 | 85 | 338 | 2.6 | 7.0 | 0.00 | 0.00 | 0.00 | 71 | 1014.1 |
| 20260904234756 | 85 | 338 | 3.5 | 7.0 | 0.00 | 0.00 | 0.00 | 71 | 1014.1 |
| 20260904234548 | 85 | 336 | 3.5 | 7.0 | 0.00 | 0.00 | 0.00 | 71 | 1014.1 |
| 20260904234434 | 85 | 330 | 3.5 | 7.0 | 0.00 | 0.00 | 0.00 | 71 | 1014.1 |
| 20260904234320 | 85 | 336 | 2.6 | 7.0 | 0.00 | 0.00 | 0.00 | 71 | 1014.1 |
| 20260904234226 | 85 | 327 | 2.6 | 7.0 | 0.00 | 0.00 | 0.00 | 71 | 1014.1 |
| 20260904234135 | 85 | 338 | 2.6 | 7.0 | 0.00 | 0.00 | 0.00 | 71 | 1014.1 |
| 20260904234026 | 85 | 300 | 2.6 | 7.0 | 0.00 | 0.00 | 0.00 | 71 | 1014.0 |
| 20260904233934 | 85 | 334 | 3.5 | 7.0 | 0.00 | 0.00 | 0.00 | 71 | 1014.1 |
| 20260904233821 | 85 | 321 | 3.5 | 7.8 | 0.00 | 0.00 | 0.00 | 70 | 1014.0 |
| 20260904233729 | 85 | 342 | 3.5 | 7.8 | 0.00 | 0.00 | 0.00 | 70 | 1014.1 |
| 20260904233635 | 85 | 338 | 3.5 | 7.8 | 0.00 | 0.00 | 0.00 | 70 | 1014.1 |
| 20260904233526 | 85 | 333 | 4.3 | 7.8 | 0.00 | 0.00 | 0.00 | 70 | 1014.0 |
| 20260904233434 | 85 | 330 | 4.3 | 7.8 | 0.00 | 0.00 | 0.00 | 70 | 1014.0 |
| 20260904233321 | 86 | 332 | 4.3 | 7.8 | 0.00 | 0.00 | 0.00 | 70 | 1014.0 |
| 20260904233251 | 86 | 325 | 4.3 | 7.8 | 0.00 | 0.00 | 0.00 | 70 | 1014.0 |
| 20260904233024 | 86 | 348 | 5.2 | 8.7 | 0.00 | 0.00 | 0.00 | 70 | 1014.0 |
| 20260904232935 | 86 | 340 | 5.2 | 8.7 | 0.00 | 0.00 | 0.00 | 70 | 1014.0 |
| 20260904232822 | 86 | 341 | 4.3 | 8.7 | 0.00 | 0.00 | 0.00 | 70 | 1014.0 |
| 20260904232728 | 86 | 328 | 4.3 | 8.7 | 0.00 | 0.00 | 0.00 | 69 | 1014.2 |
| 20260904232634 | 86 | 315 | 4.3 | 8.7 | 0.00 | 0.00 | 0.00 | 69 | 1014.0 |
| 20260904232521 | 86 | 331 | 4.3 | 8.7 | 0.00 | 0.00 | 0.00 | 69 | 1014.0 |
| 20260904232431 | 86 | 327 | 5.2 | 8.7 | 0.00 | 0.00 | 0.00 | 69 | 1014.1 |
| 20260904232357 | 86 | 346 | 5.2 | 8.7 | 0.00 | 0.00 | 0.00 | 69 | 1014.0 |
| 20260904232222 | 86 | 355 | 5.2 | 8.7 | 0.00 | 0.00 | 0.00 | 69 | 1014.0 |
| 20260904232129 | 86 | 334 | 4.3 | 8.7 | 0.00 | 0.00 | 0.00 | 69 | 1014.0 |
| 20260904232035 | 86 | 320 | 3.5 | 8.7 | 0.00 | 0.00 | 0.00 | 69 | 1014.0 |
| 20260904231923 | 86 | 346 | 4.3 | 9.6 | 0.00 | 0.00 | 0.00 | 68 | 1013.9 |
| 20260904231833 | 86 | 343 | 4.3 | 9.6 | 0.00 | 0.00 | 0.00 | 68 | 1013.9 |
| 20260904231803 | 86 | 344 | 5.2 | 9.6 | 0.00 | 0.00 | 0.00 | 68 | 1013.9 |
| 20260904231536 | 87 | 355 | 6.1 | 10.4 | 0.00 | 0.00 | 0.00 | 68 | 1013.9 |
| 20260904231421 | 87 | 5 | 6.1 | 10.4 | 0.00 | 0.00 | 0.00 | 67 | 1013.8 |
| 20260904231328 | 87 | 5 | 7.0 | 10.4 | 0.00 | 0.00 | 0.00 | 67 | 1013.9 |
| 20260904231219 | 87 | 330 | 6.1 | 10.4 | 0.00 | 0.00 | 0.00 | 67 | 1013.9 |
| 20260904231126 | 87 | 338 | 6.1 | 10.4 | 0.00 | 0.00 | 0.00 | 67 | 1014.0 |
| 20260904231033 | 87 | 5 | 5.2 | 10.4 | 0.00 | 0.00 | 0.00 | 67 | 1014.0 |
| 20260904230919 | 87 | 331 | 5.2 | 10.4 | 0.00 | 0.00 | 0.00 | 66 | 1014.0 |
| 20260904230827 | 87 | 316 | 7.0 | 10.4 | 0.00 | 0.00 | 0.00 | 66 | 1014.1 |
| 20260904230740 | 88 | 340 | 7.0 | 10.4 | 0.00 | 0.00 | 0.00 | 66 | 1014.1 |
| 20260904230626 | 88 | 331 | 5.2 | 9.6 | 0.00 | 0.00 | 0.00 | 66 | 1014.1 |
| 20260904230533 | 88 | 344 | 4.3 | 9.6 | 0.00 | 0.00 | 0.00 | 66 | 1014.1 |
| 20260904230419 | 88 | 331 | 5.2 | 10.4 | 0.00 | 0.00 | 0.00 | 66 | 1014.1 |
| 20260904230327 | 88 | 351 | 6.1 | 12.2 | 0.00 | 0.00 | 0.00 | 66 | 1014.0 |
| 20260904230300 | 88 | 355 | 6.1 | 12.2 | 0.00 | 0.00 | 0.00 | 65 | 1014.0 |
| 20260904230034 | 88 | 355 | 4.3 | 12.2 | 0.00 | 0.00 | 0.00 | 65 | 1014.1 |
| 20260904225922 | 89 | 322 | 5.2 | 12.2 | 0.00 | 0.00 | 0.00 | 65 | 1014.1 |
| 20260904225828 | 89 | 312 | 7.0 | 12.2 | 0.00 | 0.00 | 0.00 | 65 | 1014.0 |
| 20260904225736 | 89 | 328 | 7.0 | 12.2 | 0.00 | 0.00 | 0.00 | 64 | 1014.0 |
| 20260904225628 | 89 | 338 | 8.7 | 12.2 | 0.00 | 0.00 | 0.00 | 64 | 1013.9 |
| 20260904225555 | 89 | 318 | 8.7 | 12.2 | 0.00 | 0.00 | 0.00 | 64 | 1013.9 |
| 20260904225421 | 90 | 324 | 7.0 | 8.7 | 0.00 | 0.00 | 0.00 | 64 | 1013.8 |
| 20260904225328 | 90 | 331 | 6.1 | 8.7 | 0.00 | 0.00 | 0.00 | 64 | 1013.8 |
| 20260904225234 | 90 | 331 | 6.1 | 7.8 | 0.00 | 0.00 | 0.00 | 64 | 1013.7 |
| 20260904225123 | 90 | 344 | 6.1 | 8.7 | 0.00 | 0.00 | 0.00 | 64 | 1013.8 |
| 20260904225033 | 90 | 318 | 5.2 | 10.4 | 0.00 | 0.00 | 0.00 | 64 | 1013.8 |
| 20260904224920 | 90 | 5 | 3.5 | 12.2 | 0.00 | 0.00 | 0.00 | 64 | 1013.7 |
| 20260904224827 | 90 | 10 | 2.6 | 12.2 | 0.00 | 0.00 | 0.00 | 64 | 1013.7 |
| 20260904224758 | 91 | 355 | 2.6 | 12.2 | 0.00 | 0.00 | 0.00 | 63 | 1013.7 |
| 20260904224532 | 91 | 313 | 4.3 | 12.2 | 0.00 | 0.00 | 0.00 | 63 | 1013.6 |
| 20260904224423 | 91 | 346 | 5.2 | 12.2 | 0.00 | 0.00 | 0.00 | 62 | 1013.6 |
| 20260904224350 | 91 | 317 | 7.0 | 12.2 | 0.00 | 0.00 | 0.00 | 62 | 1013.6 |
| 20260904224236 | 92 | 328 | 8.7 | 12.2 | 0.00 | 0.00 | 0.00 | 62 | 1013.5 |
| 20260904224122 | 92 | 319 | 7.8 | 12.2 | 0.00 | 0.00 | 0.00 | 62 | 1013.6 |
| 20260904224028 | 92 | 350 | 6.1 | 11.3 | 0.00 | 0.00 | 0.00 | 62 | 1013.6 |
| 20260904223920 | 92 | 349 | 5.2 | 11.3 | 0.00 | 0.00 | 0.00 | 62 | 1013.7 |
| 20260904223827 | 93 | 338 | 6.1 | 11.3 | 0.00 | 0.00 | 0.00 | 62 | 1013.6 |
| 20260904223734 | 93 | 355 | 7.8 | 11.3 | 0.00 | 0.00 | 0.00 | 62 | 1013.7 |
| 20260904223621 | 93 | 344 | 7.0 | 11.3 | 0.00 | 0.00 | 0.00 | 62 | 1013.7 |
| 20260904223528 | 93 | 355 | 6.1 | 11.3 | 0.00 | 0.00 | 0.00 | 61 | 1013.7 |
| 20260904223434 | 93 | 355 | 4.3 | 13.0 | 0.00 | 0.00 | 0.00 | 61 | 1013.7 |
| 20260904223325 | 93 | 311 | 5.2 | 13.9 | 0.00 | 0.00 | 0.00 | 60 | 1013.7 |
| 20260904223256 | 93 | 350 | 5.2 | 13.9 | 0.00 | 0.00 | 0.00 | 60 | 1013.7 |
| 20260904223031 | 94 | 321 | 6.1 | 13.9 | 0.00 | 0.00 | 0.00 | 60 | 1013.7 |
| 20260904222919 | 94 | 343 | 7.0 | 13.9 | 0.00 | 0.00 | 0.00 | 59 | 1013.6 |
| 20260904222830 | 94 | 332 | 7.8 | 13.9 | 0.00 | 0.00 | 0.00 | 59 | 1013.7 |
| 20260904222736 | 94 | 328 | 8.7 | 13.9 | 0.00 | 0.00 | 0.00 | 58 | 1013.7 |
| 20260904222624 | 95 | 333 | 9.6 | 13.9 | 0.00 | 0.00 | 0.00 | 58 | 1013.7 |
| 20260904222530 | 95 | 329 | 9.6 | 13.9 | 0.00 | 0.00 | 0.00 | 59 | 1013.6 |
| 20260904222437 | 95 | 321 | 10.4 | 13.9 | 0.00 | 0.00 | 0.00 | 58 | 1013.6 |
| 20260904222343 | 95 | 301 | 6.1 | 13.0 | 0.00 | 0.00 | 0.00 | 59 | 1013.6 |
| 20260904222228 | 95 | 306 | 6.1 | 8.7 | 0.00 | 0.00 | 0.00 | 58 | 1013.7 |
| 20260904222119 | 95 | 329 | 6.1 | 8.7 | 0.00 | 0.00 | 0.00 | 59 | 1013.7 |
| 20260904222024 | 95 | 328 | 5.2 | 8.7 | 0.00 | 0.00 | 0.00 | 59 | 1013.6 |
| 20260904221952 | 95 | 323 | 4.3 | 8.7 | 0.00 | 0.00 | 0.00 | 59 | 1013.5 |
| 20260904221836 | 95 | 321 | 3.5 | 7.0 | 0.00 | 0.00 | 0.00 | 59 | 1013.6 |
| 20260904221807 | 95 | 327 | 3.5 | 7.0 | 0.00 | 0.00 | 0.00 | 58 | 1013.6 |
| 20260904221522 | 95 | 319 | 3.5 | 7.0 | 0.00 | 0.00 | 0.00 | 57 | 1013.5 |
| 20260904221430 | 95 | 247 | 3.5 | 7.0 | 0.00 | 0.00 | 0.00 | 58 | 1013.5 |
| 20260904221337 | 95 | 298 | 3.5 | 7.0 | 0.00 | 0.00 | 0.00 | 57 | 1013.5 |
| 20260904221226 | 95 | 307 | 3.5 | 7.8 | 0.00 | 0.00 | 0.00 | 58 | 1013.6 |
| 20260904221152 | 95 | 317 | 3.5 | 7.8 | 0.00 | 0.00 | 0.00 | 57 | 1013.6 |
| 20260904221019 | 95 | 302 | 3.5 | 7.8 | 0.00 | 0.00 | 0.00 | 58 | 1013.5 |
| 20260904220930 | 95 | 277 | 3.5 | 7.8 | 0.00 | 0.00 | 0.00 | 58 | 1013.7 |
| 20260904220857 | 95 | 288 | 3.5 | 8.7 | 0.00 | 0.00 | 0.00 | 58 | 1013.7 |
| 20260904220721 | 95 | 276 | 3.5 | 8.7 | 0.00 | 0.00 | 0.00 | 59 | 1013.7 |
| 20260904220629 | 95 | 258 | 4.3 | 8.7 | 0.00 | 0.00 | 0.00 | 59 | 1013.6 |
| 20260904220536 | 95 | 290 | 4.3 | 8.7 | 0.00 | 0.00 | 0.00 | 59 | 1013.5 |
| 20260904220422 | 94 | 272 | 4.3 | 8.7 | 0.00 | 0.00 | 0.00 | 60 | 1013.5 |
| 20260904220334 | 94 | 304 | 5.2 | 8.7 | 0.00 | 0.00 | 0.00 | 61 | 1013.5 |
| 20260904220303 | 94 | 297 | 5.2 | 8.7 | 0.00 | 0.00 | 0.00 | 61 | 1013.5 |
| 20260904220036 | 94 | 279 | 5.2 | 8.7 | 0.00 | 0.00 | 0.00 | 61 | 1013.4 |
| 20260904215922 | 94 | 298 | 3.5 | 7.8 | 0.00 | 0.00 | 0.00 | 61 | 1013.5 |
| 20260904215832 | 94 | 217 | 3.5 | 7.8 | 0.00 | 0.00 | 0.00 | 61 | 1013.5 |
| 20260904215719 | 94 | 287 | 4.3 | 7.8 | 0.00 | 0.00 | 0.00 | 61 | 1013.4 |
| 20260904215626 | 94 | 298 | 5.2 | 7.8 | 0.00 | 0.00 | 0.00 | 61 | 1013.4 |
| 20260904215553 | 94 | 250 | 4.3 | 7.8 | 0.00 | 0.00 | 0.00 | 61 | 1013.5 |
| 20260904215420 | 94 | 284 | 3.5 | 7.8 | 0.00 | 0.00 | 0.00 | 61 | 1013.4 |
| 20260904215326 | 94 | 96 | 3.5 | 7.0 | 0.00 | 0.00 | 0.00 | 60 | 1013.5 |
| 20260904215254 | 94 | 263 | 4.3 | 7.8 | 0.00 | 0.00 | 0.00 | 61 | 1013.4 |
| 20260904215124 | 94 | 229 | 2.6 | 7.8 | 0.00 | 0.00 | 0.00 | 61 | 1013.5 |
| 20260904215051 | 93 | 283 | 1.7 | 7.8 | 0.00 | 0.00 | 0.00 | 62 | 1013.5 |
| 20260904214958 | 93 | 248 | 1.7 | 7.8 | 0.00 | 0.00 | 0.00 | 61 | 1013.5 |
| 20260904214843 | 93 | 227 | 2.6 | 7.8 | 0.00 | 0.00 | 0.00 | 61 | 1013.5 |
| 20260904214814 | 93 | 251 | 3.5 | 7.8 | 0.00 | 0.00 | 0.00 | 61 | 1013.5 |
| 20260904214529 | 93 | 240 | 5.2 | 7.8 | 0.00 | 0.00 | 0.00 | 62 | 1013.3 |
| 20260904214436 | 93 | 260 | 3.5 | 7.0 | 0.00 | 0.00 | 0.00 | 62 | 1013.3 |
| 20260904214343 | 93 | 308 | 3.5 | 6.1 | 0.00 | 0.00 | 0.00 | 61 | 1013.3 |
| 20260904214228 | 93 | 238 | 3.5 | 6.1 | 0.00 | 0.00 | 0.00 | 61 | 1013.3 |
| 20260904214135 | 93 | 248 | 2.6 | 5.2 | 0.00 | 0.00 | 0.00 | 60 | 1013.4 |
| 20260904214023 | 93 | 275 | 2.6 | 4.3 | 0.00 | 0.00 | 0.00 | 61 | 1013.4 |
| 20260904213950 | 93 | 282 | 2.6 | 4.3 | 0.00 | 0.00 | 0.00 | 62 | 1013.5 |
| 20260904213818 | 93 | 265 | 2.6 | 7.0 | 0.00 | 0.00 | 0.00 | 62 | 1013.4 |
| 20260904213745 | 93 | 267 | 2.6 | 7.0 | 0.00 | 0.00 | 0.00 | 63 | 1013.5 |
| 20260904213652 | 93 | 261 | 2.6 | 7.0 | 0.00 | 0.00 | 0.00 | 63 | 1013.5 |
| 20260904213517 | 93 | 260 | 2.6 | 7.0 | 0.00 | 0.00 | 0.00 | 61 | 1013.5 |
| 20260904213424 | 92 | 254 | 2.6 | 7.0 | 0.00 | 0.00 | 0.00 | 63 | 1013.4 |
| 20260904213330 | 92 | 298 | 2.6 | 7.0 | 0.00 | 0.00 | 0.00 | 61 | 1013.4 |
| 20260904213303 | 93 | 250 | 3.5 | 7.0 | 0.00 | 0.00 | 0.00 | 61 | 1013.4 |
| 20260904213036 | 93 | 194 | 4.3 | 7.0 | 0.00 | 0.00 | 0.00 | 62 | 1013.3 |
| 20260904212922 | 93 | 167 | 3.5 | 6.1 | 0.00 | 0.00 | 0.00 | 62 | 1013.4 |
| 20260904212849 | 93 | 220 | 3.5 | 6.1 | 0.00 | 0.00 | 0.00 | 62 | 1013.3 |
| 20260904212734 | 93 | 197 | 3.5 | 6.1 | 0.00 | 0.00 | 0.00 | 61 | 1013.3 |
| 20260904212645 | 93 | 218 | 3.5 | 5.2 | 0.00 | 0.00 | 0.00 | 60 | 1013.3 |
| 20260904212532 | 93 | 186 | 2.6 | 6.1 | 0.00 | 0.00 | 0.00 | 60 | 1013.4 |
| 20260904212418 | 93 | 196 | 2.6 | 6.1 | 0.00 | 0.00 | 0.00 | 59 | 1013.4 |
| 20260904212346 | 93 | 226 | 1.7 | 6.1 | 0.00 | 0.00 | 0.00 | 58 | 1013.4 |
| 20260904212232 | 93 | 174 | 1.7 | 6.1 | 0.00 | 0.00 | 0.00 | 58 | 1013.4 |
| 20260904212118 | 93 | 154 | 1.7 | 6.1 | 0.00 | 0.00 | 0.00 | 57 | 1013.4 |
| 20260904212029 | 93 | 133 | 1.7 | 6.1 | 0.00 | 0.00 | 0.00 | 57 | 1013.4 |
| 20260904211917 | 93 | 121 | 1.7 | 6.1 | 0.00 | 0.00 | 0.00 | 58 | 1013.4 |
| 20260904211844 | 93 | 139 | 1.7 | 7.0 | 0.00 | 0.00 | 0.00 | 58 | 1013.5 |
| 20260904211753 | 93 | 126 | 1.7 | 7.0 | 0.00 | 0.00 | 0.00 | 58 | 1013.5 |
| 20260904211548 | 93 | 207 | 2.6 | 7.0 | 0.00 | 0.00 | 0.00 | 58 | 1013.3 |
| 20260904211419 | 93 | 182 | 2.6 | 7.0 | 0.00 | 0.00 | 0.00 | 59 | 1013.3 |
| 20260904211324 | 93 | 180 | 2.6 | 7.0 | 0.00 | 0.00 | 0.00 | 60 | 1013.2 |
| 20260904211231 | 93 | 155 | 3.5 | 7.0 | 0.00 | 0.00 | 0.00 | 58 | 1013.2 |
| 20260904211118 | 93 | 138 | 4.3 | 7.0 | 0.00 | 0.00 | 0.00 | 60 | 1013.3 |
| 20260904211024 | 93 | 184 | 4.3 | 7.0 | 0.00 | 0.00 | 0.00 | 61 | 1013.3 |
| 20260904210951 | 93 | 119 | 4.3 | 7.0 | 0.00 | 0.00 | 0.00 | 60 | 1013.3 |
| 20260904210820 | 93 | 126 | 4.3 | 7.0 | 0.00 | 0.00 | 0.00 | 60 | 1013.2 |
| 20260904210726 | 93 | 121 | 4.3 | 7.0 | 0.00 | 0.00 | 0.00 | 60 | 1013.2 |
| 20260904210634 | 93 | 119 | 4.3 | 7.0 | 0.00 | 0.00 | 0.00 | 60 | 1013.2 |
| 20260904210542 | 93 | 123 | 4.3 | 7.8 | 0.00 | 0.00 | 0.00 | 60 | 1013.1 |
| 20260904210429 | 93 | 109 | 3.5 | 7.8 | 0.00 | 0.00 | 0.00 | 59 | 1013.2 |
| 20260904210356 | 93 | 133 | 2.6 | 7.8 | 0.00 | 0.00 | 0.00 | 59 | 1013.2 |
| 20260904210329 | 93 | 136 | 2.6 | 7.8 | 0.00 | 0.00 | 0.00 | 60 | 1013.2 |
| 20260904210023 | 93 | 59 | 3.5 | 7.8 | 0.00 | 0.00 | 0.00 | 60 | 1013.2 |
| 20260904205928 | 93 | 185 | 3.5 | 8.7 | 0.00 | 0.00 | 0.00 | 59 | 1013.4 |
| 20260904205835 | 93 | 139 | 5.2 | 8.7 | 0.00 | 0.00 | 0.00 | 59 | 1013.4 |
| 20260904205721 | 93 | 153 | 5.2 | 8.7 | 0.00 | 0.00 | 0.00 | 59 | 1013.3 |
| 20260904205633 | 93 | 140 | 4.3 | 8.7 | 0.00 | 0.00 | 0.00 | 59 | 1013.2 |
| 20260904205539 | 93 | 115 | 3.5 | 8.7 | 0.00 | 0.00 | 0.00 | 59 | 1013.1 |
| 20260904205425 | 94 | 140 | 3.5 | 8.7 | 0.00 | 0.00 | 0.00 | 59 | 1013.1 |
| 20260904205331 | 94 | 137 | 4.3 | 9.6 | 0.00 | 0.00 | 0.00 | 59 | 1013.0 |
| 20260904205238 | 94 | 71 | 6.1 | 9.6 | 0.00 | 0.00 | 0.00 | 58 | 1013.0 |
| 20260904205124 | 94 | 135 | 7.0 | 9.6 | 0.00 | 0.00 | 0.00 | 58 | 1013.0 |
| 20260904205030 | 94 | 105 | 6.1 | 9.6 | 0.00 | 0.00 | 0.00 | 58 | 1013.0 |
| 20260904204920 | 94 | 131 | 5.2 | 10.4 | 0.00 | 0.00 | 0.00 | 59 | 1013.0 |
| 20260904204827 | 94 | 132 | 6.1 | 12.2 | 0.00 | 0.00 | 0.00 | 58 | 1013.0 |
| 20260904204756 | 95 | 139 | 6.1 | 12.2 | 0.00 | 0.00 | 0.00 | 57 | 1013.0 |
| 20260904204527 | 95 | 106 | 5.2 | 12.2 | 0.00 | 0.00 | 0.00 | 59 | 1013.1 |
| 20260904204419 | 95 | 101 | 5.2 | 12.2 | 0.00 | 0.00 | 0.00 | 57 | 1013.1 |
| 20260904204326 | 95 | 113 | 6.1 | 12.2 | 0.00 | 0.00 | 0.00 | 57 | 1013.1 |
| 20260904204233 | 95 | 121 | 6.1 | 12.2 | 0.00 | 0.00 | 0.00 | 60 | 1013.2 |
| 20260904204120 | 95 | 122 | 7.8 | 12.2 | 0.00 | 0.00 | 0.00 | 56 | 1013.3 |
| 20260904204028 | 96 | 111 | 7.8 | 12.2 | 0.00 | 0.00 | 0.00 | 56 | 1013.3 |
| 20260904203918 | 96 | 90 | 7.0 | 11.3 | 0.00 | 0.00 | 0.00 | 57 | 1013.3 |
| 20260904203824 | 96 | 94 | 6.1 | 12.2 | 0.00 | 0.00 | 0.00 | 57 | 1013.3 |
| 20260904203730 | 96 | 132 | 6.1 | 12.2 | 0.00 | 0.00 | 0.00 | 58 | 1013.3 |
| 20260904203636 | 96 | 163 | 7.0 | 12.2 | 0.00 | 0.00 | 0.00 | 57 | 1013.4 |
| 20260904203522 | 96 | 109 | 7.8 | 12.2 | 0.00 | 0.00 | 0.00 | 56 | 1013.3 |
| 20260904203451 | 96 | 113 | 7.0 | 12.2 | 0.00 | 0.00 | 0.00 | 56 | 1013.4 |
| 20260904203417 | 96 | 121 | 7.8 | 12.2 | 0.00 | 0.00 | 0.00 | 56 | 1013.4 |
| 20260904203327 | 97 | 121 | 7.8 | 12.2 | 0.00 | 0.00 | 0.00 | 56 | 1013.4 |
| 20260904203019 | 97 | 109 | 7.0 | 12.2 | 0.00 | 0.00 | 0.00 | 56 | 1013.4 |
| 20260904202926 | 97 | 157 | 7.8 | 11.3 | 0.00 | 0.00 | 0.00 | 55 | 1013.4 |
| 20260904202833 | 97 | 115 | 7.8 | 11.3 | 0.00 | 0.00 | 0.00 | 55 | 1013.4 |
| 20260904202719 | 97 | 94 | 6.1 | 9.6 | 0.00 | 0.00 | 0.00 | 54 | 1013.5 |
| 20260904202629 | 97 | 21 | 5.2 | 8.7 | 0.00 | 0.00 | 0.00 | 53 | 1013.4 |
| 20260904202517 | 98 | 49 | 4.3 | 8.7 | 0.00 | 0.00 | 0.00 | 54 | 1013.5 |
| 20260904202423 | 98 | 142 | 3.5 | 8.7 | 0.00 | 0.00 | 0.00 | 55 | 1013.5 |
| 20260904202350 | 97 | 67 | 3.5 | 8.7 | 0.00 | 0.00 | 0.00 | 53 | 1013.5 |
| 20260904202237 | 97 | 148 | 4.3 | 8.7 | 0.00 | 0.00 | 0.00 | 53 | 1013.6 |
| 20260904202143 | 97 | 102 | 3.5 | 8.7 | 0.00 | 0.00 | 0.00 | 52 | 1013.6 |
| 20260904202034 | 98 | 93 | 3.5 | 8.7 | 0.00 | 0.00 | 0.00 | 52 | 1013.5 |
| 20260904201919 | 98 | 59 | 5.2 | 8.7 | 0.00 | 0.00 | 0.00 | 52 | 1013.5 |
| 20260904201827 | 98 | 126 | 5.2 | 8.7 | 0.00 | 0.00 | 0.00 | 51 | 1013.6 |
| 20260904201758 | 98 | 126 | 4.3 | 8.7 | 0.00 | 0.00 | 0.00 | 51 | 1013.6 |
| 20260904201550 | 98 | 25 | 2.6 | 7.8 | 0.00 | 0.00 | 0.00 | 52 | 1013.6 |
| 20260904201419 | 98 | 85 | 2.6 | 7.8 | 0.00 | 0.00 | 0.00 | 52 | 1013.7 |
| 20260904201328 | 98 | 5 | 3.5 | 7.8 | 0.00 | 0.00 | 0.00 | 51 | 1013.7 |
| 20260904201234 | 98 | 63 | 4.3 | 7.8 | 0.00 | 0.00 | 0.00 | 52 | 1013.8 |
| 20260904201120 | 97 | 79 | 5.2 | 7.8 | 0.00 | 0.00 | 0.00 | 52 | 1013.7 |
| 20260904201029 | 97 | 69 | 4.3 | 7.8 | 0.00 | 0.00 | 0.00 | 53 | 1013.7 |
| 20260904200920 | 97 | 125 | 3.5 | 7.8 | 0.00 | 0.00 | 0.00 | 50 | 1013.8 |
| 20260904200827 | 97 | 136 | 3.5 | 7.8 | 0.00 | 0.00 | 0.00 | 51 | 1013.8 |
| 20260904200735 | 97 | 115 | 4.3 | 7.8 | 0.00 | 0.00 | 0.00 | 52 | 1013.7 |
| 20260904200621 | 97 | 83 | 5.2 | 7.8 | 0.00 | 0.00 | 0.00 | 52 | 1013.8 |
| 20260904200528 | 97 | 84 | 4.3 | 7.8 | 0.00 | 0.00 | 0.00 | 54 | 1013.7 |
| 20260904200435 | 97 | 111 | 2.6 | 6.1 | 0.00 | 0.00 | 0.00 | 52 | 1013.8 |
| 20260904200324 | 97 | 155 | 2.6 | 6.1 | 0.00 | 0.00 | 0.00 | 52 | 1013.8 |
| 20260904200255 | 97 | 146 | 1.7 | 6.1 | 0.00 | 0.00 | 0.00 | 54 | 1013.8 |
| 20260904200049 | 97 | 116 | 0.9 | 6.1 | 0.00 | 0.00 | 0.00 | 53 | 1013.9 |
| 20260904195933 | 97 | 61 | 1.7 | 6.1 | 0.00 | 0.00 | 0.00 | 53 | 1013.9 |
| 20260904195842 | 97 | 61 | 2.6 | 6.1 | 0.00 | 0.00 | 0.00 | 52 | 1013.9 |
| 20260904195731 | 97 | 85 | 3.5 | 6.1 | 0.00 | 0.00 | 0.00 | 51 | 1013.9 |
| 20260904195618 | 97 | 126 | 2.6 | 6.1 | 0.00 | 0.00 | 0.00 | 52 | 1013.9 |
| 20260904195546 | 97 | 125 | 3.5 | 6.1 | 0.00 | 0.00 | 0.00 | 51 | 1013.9 |
| 20260904195431 | 97 | 48 | 4.3 | 6.1 | 0.00 | 0.00 | 0.00 | 51 | 1014.0 |
| 20260904195319 | 97 | 57 | 4.3 | 8.7 | 0.00 | 0.00 | 0.00 | 51 | 1014.0 |
| 20260904195226 | 98 | 90 | 3.5 | 8.7 | 0.00 | 0.00 | 0.00 | 51 | 1014.0 |
| 20260904195132 | 98 | 23 | 3.5 | 8.7 | 0.00 | 0.00 | 0.00 | 52 | 1014.0 |
| 20260904195042 | 98 | 101 | 2.6 | 8.7 | 0.00 | 0.00 | 0.00 | 52 | 1014.1 |
| 20260904194927 | 98 | 157 | 3.5 | 8.7 | 0.00 | 0.00 | 0.00 | 53 | 1014.1 |
| 20260904194855 | 98 | 121 | 3.5 | 8.7 | 0.00 | 0.00 | 0.00 | 53 | 1014.1 |
| 20260904194826 | 98 | 84 | 5.2 | 8.7 | 0.00 | 0.00 | 0.00 | 52 | 1014.0 |
| 20260904194518 | 98 | 75 | 4.3 | 7.8 | 0.00 | 0.00 | 0.00 | 53 | 1014.2 |
| 20260904194450 | 98 | 51 | 3.5 | 7.8 | 0.00 | 0.00 | 0.00 | 52 | 1014.2 |
| 20260904194336 | 98 | 82 | 2.6 | 7.8 | 0.00 | 0.00 | 0.00 | 52 | 1014.1 |
| 20260904194222 | 98 | 63 | 3.5 | 7.8 | 0.00 | 0.00 | 0.00 | 52 | 1014.2 |
| 20260904194130 | 98 | 67 | 3.5 | 7.8 | 0.00 | 0.00 | 0.00 | 52 | 1014.2 |
| 20260904194018 | 98 | 113 | 2.6 | 7.8 | 0.00 | 0.00 | 0.00 | 54 | 1014.3 |
| 20260904193947 | 98 | 97 | 2.6 | 7.8 | 0.00 | 0.00 | 0.00 | 52 | 1014.3 |
| 20260904193836 | 98 | 53 | 2.6 | 7.8 | 0.00 | 0.00 | 0.00 | 53 | 1014.3 |
| 20260904193724 | 98 | 31 | 2.6 | 7.8 | 0.00 | 0.00 | 0.00 | 53 | 1014.2 |
| 20260904193631 | 98 | 42 | 4.3 | 7.8 | 0.00 | 0.00 | 0.00 | 54 | 1014.3 |
| 20260904193517 | 98 | 65 | 5.2 | 7.8 | 0.00 | 0.00 | 0.00 | 53 | 1014.3 |
| 20260904193425 | 98 | 138 | 4.3 | 7.8 | 0.00 | 0.00 | 0.00 | 56 | 1014.3 |
| 20260904193333 | 98 | 130 | 3.5 | 7.8 | 0.00 | 0.00 | 0.00 | 54 | 1014.2 |
| 20260904193305 | 98 | 121 | 3.5 | 7.0 | 0.00 | 0.00 | 0.00 | 51 | 1014.2 |
| 20260904193018 | 98 | 198 | 2.6 | 6.1 | 0.00 | 0.00 | 0.00 | 50 | 1014.2 |
| 20260904192926 | 98 | 177 | 3.5 | 6.1 | 0.00 | 0.00 | 0.00 | 51 | 1014.3 |
| 20260904192832 | 98 | 144 | 1.7 | 6.1 | 0.00 | 0.00 | 0.00 | 50 | 1014.3 |
| 20260904192742 | 98 | 251 | 1.7 | 6.1 | 0.00 | 0.00 | 0.00 | 50 | 1014.4 |
| 20260904192629 | 98 | 184 | 2.6 | 6.1 | 0.00 | 0.00 | 0.00 | 50 | 1014.4 |
| 20260904192536 | 98 | 158 | 3.5 | 6.1 | 0.00 | 0.00 | 0.00 | 51 | 1014.3 |
| 20260904192425 | 98 | 195 | 2.6 | 5.2 | 0.00 | 0.00 | 0.00 | 55 | 1014.3 |
| 20260904192332 | 98 | 154 | 1.7 | 4.3 | 0.00 | 0.00 | 0.00 | 54 | 1014.4 |
| 20260904192221 | 98 | 150 | 1.7 | 4.3 | 0.00 | 0.00 | 0.00 | 54 | 1014.4 |
| 20260904192131 | 98 | 194 | 1.7 | 4.3 | 0.00 | 0.00 | 0.00 | 52 | 1014.3 |
| 20260904192039 | 98 | 200 | 0.9 | 3.5 | 0.00 | 0.00 | 0.00 | 51 | 1014.4 |
| 20260904191923 | 98 | 78 | 0.9 | 7.0 | 0.00 | 0.00 | 0.00 | 51 | 1014.4 |
| 20260904191831 | 98 | 105 | 1.7 | 7.0 | 0.00 | 0.00 | 0.00 | 52 | 1014.3 |
| 20260904191800 | 98 | 105 | 1.7 | 7.0 | 0.00 | 0.00 | 0.00 | 52 | 1014.3 |
| 20260904191518 | 98 | 360 | 1.7 | 7.0 | 0.00 | 0.00 | 0.00 | 53 | 1014.5 |
| 20260904191426 | 98 | 360 | 1.7 | 7.0 | 0.00 | 0.00 | 0.00 | 53 | 1014.6 |
| 20260904191333 | 97 | 14 | 2.6 | 7.0 | 0.00 | 0.00 | 0.00 | 53 | 1014.5 |
| 20260904191221 | 97 | 327 | 3.5 | 7.0 | 0.00 | 0.00 | 0.00 | 53 | 1014.6 |
| 20260904191127 | 97 | 29 | 3.5 | 7.0 | 0.00 | 0.00 | 0.00 | 55 | 1014.6 |
| 20260904191054 | 97 | 36 | 3.5 | 7.0 | 0.00 | 0.00 | 0.00 | 55 | 1014.6 |
| 20260904190922 | 97 | 5 | 3.5 | 7.0 | 0.00 | 0.00 | 0.00 | 53 | 1014.6 |
| 20260904190829 | 97 | 39 | 4.3 | 7.8 | 0.00 | 0.00 | 0.00 | 54 | 1014.7 |
| 20260904190736 | 97 | 9 | 4.3 | 7.8 | 0.00 | 0.00 | 0.00 | 54 | 1014.7 |
| 20260904190623 | 97 | 36 | 4.3 | 7.8 | 0.00 | 0.00 | 0.00 | 53 | 1014.7 |
| 20260904190530 | 97 | 57 | 4.3 | 7.8 | 0.00 | 0.00 | 0.00 | 53 | 1014.8 |
| 20260904190421 | 97 | 90 | 4.3 | 7.8 | 0.00 | 0.00 | 0.00 | 53 | 1014.8 |
| 20260904190330 | 97 | 26 | 3.5 | 7.8 | 0.00 | 0.00 | 0.00 | 53 | 1014.8 |
| 20260904190300 | 97 | 67 | 3.5 | 7.8 | 0.00 | 0.00 | 0.00 | 53 | 1014.8 |
| 20260904190034 | 97 | 48 | 3.5 | 7.8 | 0.00 | 0.00 | 0.00 | 55 | 1014.8 |
| 20260904185927 | 97 | 97 | 3.5 | 6.1 | 0.00 | 0.00 | 0.00 | 54 | 1014.8 |
| 20260904185832 | 98 | 76 | 3.5 | 6.1 | 0.00 | 0.00 | 0.00 | 54 | 1014.8 |
| 20260904185646 | 98 | 157 | 3.5 | 6.1 | 0.00 | 0.00 | 0.00 | 52 | 1014.8 |
| 20260904185533 | 98 | 134 | 2.6 | 6.1 | 0.00 | 0.00 | 0.00 | 51 | 1014.9 |
| 20260904185418 | 99 | 150 | 1.7 | 6.1 | 0.00 | 0.00 | 0.00 | 51 | 1014.9 |
| 20260904185329 | 99 | 127 | 2.6 | 6.1 | 0.00 | 0.00 | 0.00 | 52 | 1014.9 |
| 20260904185235 | 99 | 75 | 2.6 | 6.1 | 0.00 | 0.00 | 0.00 | 52 | 1015.0 |
| 20260904185122 | 99 | 118 | 2.6 | 7.0 | 0.00 | 0.00 | 0.00 | 52 | 1015.0 |
| 20260904185049 | 99 | 355 | 2.6 | 7.0 | 0.00 | 0.00 | 0.00 | 53 | 1015.0 |
| 20260904184934 | 99 | 322 | 3.5 | 7.0 | 0.00 | 0.00 | 0.00 | 53 | 1015.0 |
| 20260904184822 | 99 | 301 | 2.6 | 7.0 | 0.00 | 0.00 | 0.00 | 54 | 1015.0 |
| 20260904184756 | 99 | 341 | 2.6 | 7.0 | 0.00 | 0.00 | 0.00 | 54 | 1015.0 |
| 20260904184528 | 99 | 19 | 3.5 | 7.0 | 0.00 | 0.00 | 0.00 | 53 | 1015.1 |
| 20260904184437 | 99 | 32 | 4.3 | 7.0 | 0.00 | 0.00 | 0.00 | 54 | 1015.1 |
| 20260904184322 | 99 | 21 | 4.3 | 7.0 | 0.00 | 0.00 | 0.00 | 54 | 1015.2 |
| 20260904184228 | 99 | 34 | 3.5 | 7.0 | 0.00 | 0.00 | 0.00 | 54 | 1015.2 |
| 20260904184120 | 99 | 11 | 3.5 | 7.0 | 0.00 | 0.00 | 0.00 | 54 | 1015.2 |
| 20260904184028 | 99 | 35 | 4.3 | 7.0 | 0.00 | 0.00 | 0.00 | 54 | 1015.2 |
| 20260904183934 | 99 | 22 | 4.3 | 7.0 | 0.00 | 0.00 | 0.00 | 55 | 1015.2 |
| 20260904183820 | 98 | 355 | 3.5 | 7.0 | 0.00 | 0.00 | 0.00 | 54 | 1015.2 |
| 20260904183727 | 98 | 92 | 4.3 | 7.0 | 0.00 | 0.00 | 0.00 | 56 | 1015.3 |
| 20260904183638 | 98 | 42 | 4.3 | 7.0 | 0.00 | 0.00 | 0.00 | 55 | 1015.2 |
| 20260904183524 | 98 | 35 | 2.6 | 7.0 | 0.00 | 0.00 | 0.00 | 55 | 1015.3 |
| 20260904183430 | 98 | 163 | 2.6 | 7.0 | 0.00 | 0.00 | 0.00 | 57 | 1015.2 |
| 20260904183338 | 98 | 78 | 3.5 | 7.0 | 0.00 | 0.00 | 0.00 | 57 | 1015.3 |
| 20260904183309 | 98 | 12 | 4.3 | 7.0 | 0.00 | 0.00 | 0.00 | 57 | 1015.3 |
| 20260904183045 | 98 | 15 | 5.2 | 13.9 | 0.00 | 0.00 | 0.00 | 56 | 1015.2 |
| 20260904182951 | 98 | 16 | 5.2 | 13.9 | 0.00 | 0.00 | 0.00 | 57 | 1015.2 |
| 20260904182857 | 98 | 349 | 4.3 | 13.9 | 0.00 | 0.00 | 0.00 | 57 | 1015.3 |
| 20260904182723 | 98 | 325 | 2.6 | 13.9 | 0.00 | 0.00 | 0.00 | 56 | 1015.3 |
| 20260904182631 | 98 | 5 | 2.6 | 13.9 | 0.00 | 0.00 | 0.00 | 55 | 1015.4 |
| 20260904182518 | 98 | 9 | 2.6 | 13.9 | 0.00 | 0.00 | 0.00 | 56 | 1015.4 |
| 20260904182426 | 98 | 36 | 3.5 | 13.9 | 0.00 | 0.00 | 0.00 | 55 | 1015.3 |
| 20260904182337 | 98 | 331 | 6.1 | 13.9 | 0.00 | 0.00 | 0.00 | 56 | 1015.4 |
| 20260904182224 | 98 | 22 | 7.8 | 13.9 | 0.00 | 0.00 | 0.00 | 55 | 1015.3 |
| 20260904182132 | 98 | 148 | 6.1 | 11.3 | 0.00 | 0.00 | 0.00 | 55 | 1015.3 |
| 20260904182018 | 98 | 98 | 2.6 | 7.0 | 0.00 | 0.00 | 0.00 | 55 | 1015.4 |
| 20260904181925 | 97 | 121 | 0.9 | 6.1 | 0.00 | 0.00 | 0.00 | 55 | 1015.4 |
| 20260904181835 | 97 | 281 | 0.9 | 6.1 | 0.00 | 0.00 | 0.00 | 56 | 1015.4 |
| 20260904181807 | 97 | 276 | 0.9 | 7.0 | 0.00 | 0.00 | 0.00 | 53 | 1015.4 |
| 20260904181519 | 97 | 90 | 1.7 | 7.0 | 0.00 | 0.00 | 0.00 | 54 | 1015.4 |
| 20260904181446 | 97 | 90 | 3.5 | 7.0 | 0.00 | 0.00 | 0.00 | 54 | 1015.4 |
| 20260904181332 | 98 | 132 | 3.5 | 7.0 | 0.00 | 0.00 | 0.00 | 56 | 1015.4 |
| 20260904181223 | 98 | 123 | 1.7 | 7.8 | 0.00 | 0.00 | 0.00 | 56 | 1015.5 |
| 20260904181130 | 98 | 112 | 1.7 | 7.8 | 0.00 | 0.00 | 0.00 | 56 | 1015.5 |
| 20260904181036 | 98 | 100 | 2.6 | 7.8 | 0.00 | 0.00 | 0.00 | 55 | 1015.5 |
| 20260904180922 | 98 | 113 | 2.6 | 7.8 | 0.00 | 0.00 | 0.00 | 54 | 1015.5 |
| 20260904180829 | 98 | 65 | 2.6 | 7.8 | 0.00 | 0.00 | 0.00 | 55 | 1015.5 |
| 20260904180720 | 98 | 40 | 2.6 | 7.8 | 0.00 | 0.00 | 0.00 | 54 | 1015.5 |
| 20260904180626 | 98 | 64 | 3.5 | 7.8 | 0.00 | 0.00 | 0.00 | 54 | 1015.6 |
| 20260904180532 | 98 | 88 | 5.2 | 7.8 | 0.00 | 0.00 | 0.00 | 55 | 1015.6 |
| 20260904180420 | 98 | 75 | 3.5 | 7.8 | 0.00 | 0.00 | 0.00 | 54 | 1015.6 |
| 20260904180327 | 98 | 168 | 3.5 | 7.0 | 0.00 | 0.00 | 0.00 | 56 | 1015.6 |
| 20260904180302 | 98 | 118 | 3.5 | 7.0 | 0.00 | 0.00 | 0.00 | 56 | 1015.6 |
| 20260904180035 | 98 | 13 | 4.3 | 6.1 | 0.00 | 0.00 | 0.00 | 56 | 1015.7 |
| 20260904175922 | 97 | 45 | 3.5 | 7.0 | 0.00 | 0.00 | 0.00 | 57 | 1015.8 |
| 20260904175828 | 97 | 46 | 1.7 | 5.2 | 0.00 | 0.00 | 0.00 | 58 | 1015.8 |
| 20260904175736 | 97 | 351 | 0.9 | 5.2 | 0.00 | 0.00 | 0.00 | 57 | 1015.7 |
| 20260904175625 | 97 | 29 | 0.9 | 5.2 | 0.00 | 0.00 | 0.00 | 57 | 1015.9 |
| 20260904175531 | 97 | 28 | 1.7 | 5.2 | 0.00 | 0.00 | 0.00 | 58 | 1015.7 |
| 20260904175418 | 97 | 50 | 3.5 | 8.7 | 0.00 | 0.00 | 0.00 | 58 | 1015.8 |
| 20260904175327 | 97 | 42 | 2.6 | 8.7 | 0.00 | 0.00 | 0.00 | 57 | 1015.9 |
| 20260904175233 | 97 | 46 | 1.7 | 8.7 | 0.00 | 0.00 | 0.00 | 57 | 1015.9 |
| 20260904175120 | 97 | 355 | 3.5 | 8.7 | 0.00 | 0.00 | 0.00 | 59 | 1015.9 |
| 20260904175030 | 97 | 360 | 3.5 | 8.7 | 0.00 | 0.00 | 0.00 | 62 | 1015.8 |
| 20260904174917 | 97 | 346 | 3.5 | 8.7 | 0.00 | 0.00 | 0.00 | 58 | 1015.9 |
| 20260904174824 | 97 | 355 | 5.2 | 8.7 | 0.00 | 0.00 | 0.00 | 57 | 1015.9 |
| 20260904174755 | 97 | 40 | 5.2 | 8.7 | 0.00 | 0.00 | 0.00 | 59 | 1015.9 |
| 20260904174534 | 97 | 49 | 3.5 | 7.0 | 0.00 | 0.00 | 0.00 | 57 | 1015.9 |
| 20260904174421 | 97 | 333 | 1.7 | 5.2 | 0.00 | 0.00 | 0.00 | 55 | 1015.9 |
| 20260904174328 | 97 | 281 | 1.7 | 5.2 | 0.00 | 0.00 | 0.00 | 55 | 1015.9 |
| 20260904174235 | 97 | 225 | 2.6 | 5.2 | 0.00 | 0.00 | 0.00 | 56 | 1016.0 |
| 20260904174122 | 97 | 182 | 2.6 | 5.2 | 0.00 | 0.00 | 0.00 | 56 | 1015.9 |
| 20260904174030 | 97 | 230 | 1.7 | 4.3 | 0.00 | 0.00 | 0.00 | 57 | 1016.0 |
| 20260904173922 | 96 | 213 | 0.9 | 4.3 | 0.00 | 0.00 | 0.00 | 57 | 1016.0 |
| 20260904173828 | 96 | 190 | 0.9 | 4.3 | 0.00 | 0.00 | 0.00 | 59 | 1016.0 |
| 20260904173736 | 96 | 277 | 0.9 | 6.1 | 0.00 | 0.00 | 0.00 | 60 | 1016.0 |
| 20260904173623 | 96 | 321 | 0.9 | 6.1 | 0.00 | 0.00 | 0.00 | 57 | 1016.0 |
| 20260904173531 | 96 | 360 | 0.9 | 6.1 | 0.00 | 0.00 | 0.00 | 57 | 1016.0 |
| 20260904173421 | 96 | 271 | 0.9 | 6.1 | 0.00 | 0.00 | 0.00 | 59 | 1016.1 |
| 20260904173327 | 96 | 341 | 1.7 | 6.1 | 0.00 | 0.00 | 0.00 | 57 | 1016.0 |
| 20260904173256 | 96 | 67 | 1.7 | 6.1 | 0.00 | 0.00 | 0.00 | 57 | 1016.0 |
| 20260904173050 | 96 | 74 | 1.7 | 6.1 | 0.00 | 0.00 | 0.00 | 56 | 1016.1 |
| 20260904172957 | 96 | 91 | 2.6 | 6.1 | 0.00 | 0.00 | 0.00 | 57 | 1016.1 |
| 20260904172826 | 96 | 52 | 2.6 | 5.2 | 0.00 | 0.00 | 0.00 | 59 | 1016.1 |
| 20260904172733 | 96 | 59 | 1.7 | 5.2 | 0.00 | 0.00 | 0.00 | 59 | 1016.1 |
| 20260904172639 | 96 | 59 | 2.6 | 5.2 | 0.00 | 0.00 | 0.00 | 58 | 1016.1 |
| 20260904172525 | 96 | 102 | 2.6 | 5.2 | 0.00 | 0.00 | 0.00 | 59 | 1016.0 |
| 20260904172431 | 96 | 121 | 2.6 | 5.2 | 0.00 | 0.00 | 0.00 | 59 | 1016.0 |
| 20260904172317 | 96 | 25 | 2.6 | 4.3 | 0.00 | 0.00 | 0.00 | 61 | 1016.1 |
| 20260904172229 | 95 | 24 | 3.5 | 4.3 | 0.00 | 0.00 | 0.00 | 61 | 1016.1 |
| 20260904172136 | 95 | 351 | 2.6 | 4.3 | 0.00 | 0.00 | 0.00 | 60 | 1016.1 |
| 20260904172025 | 95 | 308 | 1.7 | 5.2 | 0.00 | 0.00 | 0.00 | 60 | 1016.1 |
| 20260904171932 | 95 | 339 | 0.9 | 5.2 | 0.00 | 0.00 | 0.00 | 58 | 1016.1 |
| 20260904171838 | 95 | 107 | 1.7 | 5.2 | 0.00 | 0.00 | 0.00 | 61 | 1016.1 |
| 20260904171812 | 95 | 50 | 1.7 | 5.2 | 0.00 | 0.00 | 0.00 | 61 | 1016.1 |